Wetterdaten: Sonntag, 19.05.2013
Datum Zeit Temp. Aussen +5cm Feuchte Auss Luftdruck Regen Sonnenschein Regendauer UV Solar Windben
19.05.2013 00:00 9,4 C 7,9 C 92 % 1008,9 hPa 0,0 l/m 0 min 0 min 0,0 UV-I 0 W/m 0,0 km/h (0 Bft)
19.05.2013 00:02 9,4 C 7,9 C 92 % 1008,9 hPa 0,0 l/m 0 min 0 min 0,0 UV-I 0 W/m 0,0 km/h (0 Bft)
19.05.2013 00:06 9,4 C 7,9 C 92 % 1008,8 hPa 0,0 l/m 0 min 0 min 0,0 UV-I 0 W/m 0,0 km/h (0 Bft)
19.05.2013 00:08 9,3 C 7,9 C 92 % 1008,9 hPa 0,0 l/m 0 min 0 min 0,0 UV-I 0 W/m 0,0 km/h (0 Bft)
19.05.2013 00:10 9,3 C 7,9 C 92 % 1008,9 hPa 0,0 l/m 0 min 0 min 0,0 UV-I 0 W/m 0,0 km/h (0 Bft)
19.05.2013 00:12 9,3 C 7,9 C 92 % 1008,9 hPa 0,0 l/m 0 min 0 min 0,0 UV-I 0 W/m 0,0 km/h (0 Bft)
19.05.2013 00:14 9,3 C 7,3 C 92 % 1008,9 hPa 0,0 l/m 0 min 0 min 0,0 UV-I 0 W/m 0,0 km/h (0 Bft)
19.05.2013 00:16 9,3 C 7,3 C 93 % 1008,9 hPa 0,0 l/m 0 min 0 min 0,0 UV-I 0 W/m 0,0 km/h (0 Bft)
19.05.2013 00:18 9,3 C 7,3 C 93 % 1009,0 hPa 0,0 l/m 0 min 0 min 0,0 UV-I 0 W/m 0,0 km/h (0 Bft)
19.05.2013 00:20 9,2 C 7,3 C 93 % 1008,9 hPa 0,0 l/m 0 min 0 min 0,0 UV-I 0 W/m 0,0 km/h (0 Bft)
19.05.2013 00:22 9,2 C 7,3 C 93 % 1009,0 hPa 0,0 l/m 0 min 0 min 0,0 UV-I 0 W/m 0,0 km/h (0 Bft)
19.05.2013 00:24 9,2 C 7,3 C 93 % 1009,0 hPa 0,0 l/m 0 min 0 min 0,0 UV-I 0 W/m 0,0 km/h (0 Bft)
19.05.2013 00:26 9,2 C 6,8 C 92 % 1009,1 hPa 0,0 l/m 0 min 0 min 0,0 UV-I 0 W/m 0,0 km/h (0 Bft)
19.05.2013 00:28 9,2 C 7,3 C 92 % 1009,0 hPa 0,0 l/m 0 min 0 min 0,0 UV-I 0 W/m 0,0 km/h (0 Bft)
19.05.2013 00:30 9,2 C 7,3 C 92 % 1009,0 hPa 0,0 l/m 0 min 0 min 0,0 UV-I 0 W/m 0,0 km/h (0 Bft)
19.05.2013 00:32 9,1 C 7,3 C 92 % 1009,0 hPa 0,0 l/m 0 min 0 min 0,0 UV-I 0 W/m 0,0 km/h (0 Bft)
19.05.2013 00:34 9,1 C 7,3 C 92 % 1008,9 hPa 0,0 l/m 0 min 0 min 0,0 UV-I 0 W/m 0,0 km/h (0 Bft)
19.05.2013 00:36 9,1 C 7,3 C 93 % 1008,9 hPa 0,0 l/m 0 min 0 min 0,0 UV-I 0 W/m 0,0 km/h (0 Bft)
19.05.2013 00:38 9,1 C 7,3 C 93 % 1009,0 hPa 0,0 l/m 0 min 0 min 0,0 UV-I 0 W/m 0,0 km/h (0 Bft)
19.05.2013 00:40 9,1 C 6,8 C 93 % 1009,0 hPa 0,0 l/m 0 min 0 min 0,0 UV-I 0 W/m 0,0 km/h (0 Bft)
19.05.2013 00:42 9,0 C 6,8 C 93 % 1009,1 hPa 0,0 l/m 0 min 0 min 0,0 UV-I 0 W/m 0,0 km/h (0 Bft)
19.05.2013 00:44 9,0 C 6,8 C 93 % 1009,0 hPa 0,0 l/m 0 min 0 min 0,0 UV-I 0 W/m 0,0 km/h (0 Bft)
19.05.2013 00:46 8,9 C 6,8 C 93 % 1009,1 hPa 0,0 l/m 0 min 0 min 0,0 UV-I 0 W/m 0,0 km/h (0 Bft)
19.05.2013 00:48 8,9 C 6,8 C 93 % 1009,0 hPa 0,0 l/m 0 min 0 min 0,0 UV-I 0 W/m 0,0 km/h (0 Bft)
19.05.2013 00:50 8,9 C 6,8 C 93 % 1009,1 hPa 0,0 l/m 0 min 0 min 0,0 UV-I 0 W/m 0,0 km/h (0 Bft)
19.05.2013 00:52 8,9 C 6,8 C 93 % 1008,9 hPa 0,0 l/m 0 min 0 min 0,0 UV-I 0 W/m 0,0 km/h (0 Bft)
19.05.2013 00:54 8,8 C 6,2 C 93 % 1009,0 hPa 0,0 l/m 0 min 0 min 0,0 UV-I 0 W/m 0,0 km/h (0 Bft)
19.05.2013 00:56 8,8 C 6,2 C 96 % 1009,0 hPa 0,0 l/m 0 min 0 min 0,0 UV-I 0 W/m 0,0 km/h (0 Bft)
19.05.2013 00:58 8,8 C 6,2 C 92 % 1009,0 hPa 0,0 l/m 0 min 0 min 0,0 UV-I 0 W/m 0,0 km/h (0 Bft)
19.05.2013 01:00 8,7 C 6,2 C 92 % 1009,0 hPa 0,0 l/m 0 min 0 min 0,0 UV-I 0 W/m 0,0 km/h (0 Bft)
19.05.2013 01:02 8,7 C 6,2 C 92 % 1009,0 hPa 0,0 l/m 0 min 0 min 0,0 UV-I 0 W/m 0,0 km/h (0 Bft)
19.05.2013 01:04 8,6 C 6,2 C 92 % 1008,9 hPa 0,0 l/m 0 min 0 min 0,0 UV-I 0 W/m 0,0 km/h (0 Bft)
19.05.2013 01:06 8,6 C 6,2 C 92 % 1009,0 hPa 0,0 l/m 0 min 0 min 0,0 UV-I 0 W/m 0,0 km/h (0 Bft)
19.05.2013 01:08 8,6 C 6,2 C 92 % 1009,0 hPa 0,0 l/m 0 min 0 min 0,0 UV-I 0 W/m 0,0 km/h (0 Bft)
19.05.2013 01:10 8,5 C 6,2 C 92 % 1008,9 hPa 0,0 l/m 0 min 0 min 0,0 UV-I 0 W/m 0,0 km/h (0 Bft)
19.05.2013 01:12 8,4 C 6,2 C 92 % 1008,9 hPa 0,0 l/m 0 min 0 min 0,0 UV-I 0 W/m 0,0 km/h (0 Bft)
19.05.2013 01:14 8,4 C 6,2 C 92 % 1009,0 hPa 0,0 l/m 0 min 0 min 0,0 UV-I 0 W/m 0,0 km/h (0 Bft)
19.05.2013 01:16 8,4 C 6,2 C 92 % 1009,0 hPa 0,0 l/m 0 min 0 min 0,0 UV-I 0 W/m 0,0 km/h (0 Bft)
19.05.2013 01:18 8,3 C 6,2 C 92 % 1008,9 hPa 0,0 l/m 0 min 0 min 0,0 UV-I 0 W/m 0,0 km/h (0 Bft)
19.05.2013 01:20 8,3 C 6,2 C 92 % 1008,8 hPa 0,0 l/m 0 min 0 min 0,0 UV-I 0 W/m 0,0 km/h (0 Bft)
19.05.2013 01:22 8,3 C 6,2 C 92 % 1008,9 hPa 0,0 l/m 0 min 0 min 0,0 UV-I 0 W/m 0,0 km/h (0 Bft)
19.05.2013 01:24 8,2 C 6,2 C 92 % 1008,9 hPa 0,0 l/m 0 min 0 min 0,0 UV-I 0 W/m 0,0 km/h (0 Bft)
19.05.2013 01:26 8,2 C 6,2 C 92 % 1008,8 hPa 0,0 l/m 0 min 0 min 0,0 UV-I 0 W/m 0,0 km/h (0 Bft)
19.05.2013 01:28 8,2 C 6,2 C 92 % 1008,8 hPa 0,0 l/m 0 min 0 min 0,0 UV-I 0 W/m 0,0 km/h (0 Bft)
19.05.2013 01:30 8,2 C 6,2 C 92 % 1008,8 hPa 0,0 l/m 0 min 0 min 0,0 UV-I 0 W/m 0,0 km/h (0 Bft)
19.05.2013 01:32 8,1 C 6,2 C 92 % 1008,8 hPa 0,0 l/m 0 min 0 min 0,0 UV-I 0 W/m 0,0 km/h (0 Bft)
19.05.2013 01:34 8,1 C 6,8 C 93 % 1008,7 hPa 0,0 l/m 0 min 0 min 0,0 UV-I 0 W/m 0,0 km/h (0 Bft)
19.05.2013 01:36 8,1 C 6,8 C 93 % 1008,7 hPa 0,0 l/m 0 min 0 min 0,0 UV-I 0 W/m 0,0 km/h (0 Bft)
19.05.2013 01:38 8,1 C 6,8 C 93 % 1008,8 hPa 0,0 l/m 0 min 0 min 0,0 UV-I 0 W/m 0,0 km/h (0 Bft)
19.05.2013 01:40 8,1 C 6,8 C 93 % 1008,8 hPa 0,0 l/m 0 min 0 min 0,0 UV-I 0 W/m 0,0 km/h (0 Bft)
19.05.2013 01:42 8,1 C 6,8 C 93 % 1008,8 hPa 0,0 l/m 0 min 0 min 0,0 UV-I 0 W/m 0,0 km/h (0 Bft)
19.05.2013 01:44 8,1 C 6,8 C 93 % 1008,7 hPa 0,0 l/m 0 min 0 min 0,0 UV-I 0 W/m 0,0 km/h (0 Bft)
19.05.2013 01:46 8,1 C 6,8 C 93 % 1008,8 hPa 0,0 l/m 0 min 0 min 0,0 UV-I 0 W/m 0,0 km/h (0 Bft)
19.05.2013 01:48 8,1 C 6,8 C 93 % 1008,7 hPa 0,0 l/m 0 min 0 min 0,0 UV-I 0 W/m 0,0 km/h (0 Bft)
19.05.2013 01:50 8,1 C 6,8 C 93 % 1008,7 hPa 0,0 l/m 0 min 0 min 0,0 UV-I 0 W/m 0,0 km/h (0 Bft)
19.05.2013 01:52 8,1 C 6,8 C 93 % 1008,7 hPa 0,0 l/m 0 min 0 min 0,0 UV-I 0 W/m 0,0 km/h (0 Bft)
19.05.2013 01:54 8,1 C 6,8 C 93 % 1008,6 hPa 0,0 l/m 0 min 0 min 0,0 UV-I 0 W/m 0,0 km/h (0 Bft)
19.05.2013 01:56 8,1 C 6,8 C 93 % 1008,6 hPa 0,0 l/m 0 min 0 min 0,0 UV-I 0 W/m 0,0 km/h (0 Bft)
19.05.2013 01:58 8,1 C 6,8 C 94 % 1008,6 hPa 0,0 l/m 0 min 0 min 0,0 UV-I 0 W/m 0,0 km/h (0 Bft)
19.05.2013 02:00 8,1 C 6,8 C 94 % 1008,7 hPa 0,0 l/m 0 min 0 min 0,0 UV-I 0 W/m 0,0 km/h (0 Bft)
19.05.2013 02:02 8,1 C 6,8 C 94 % 1008,7 hPa 0,0 l/m 0 min 0 min 0,0 UV-I 0 W/m 0,0 km/h (0 Bft)
19.05.2013 02:04 8,1 C 6,8 C 94 % 1008,7 hPa 0,0 l/m 0 min 0 min 0,0 UV-I 0 W/m 0,0 km/h (0 Bft)
19.05.2013 02:06 8,1 C 6,2 C 94 % 1008,6 hPa 0,0 l/m 0 min 0 min 0,0 UV-I 0 W/m 0,0 km/h (0 Bft)
19.05.2013 02:08 8,0 C 6,2 C 94 % 1008,7 hPa 0,0 l/m 0 min 0 min 0,0 UV-I 0 W/m 0,0 km/h (0 Bft)
19.05.2013 02:10 8,0 C 6,2 C 94 % 1008,6 hPa 0,0 l/m 0 min 0 min 0,0 UV-I 0 W/m 0,0 km/h (0 Bft)
19.05.2013 02:12 8,0 C 6,2 C 98 % 1008,6 hPa 0,0 l/m 0 min 0 min 0,0 UV-I 0 W/m 0,0 km/h (0 Bft)
19.05.2013 02:14 8,0 C 6,2 C 94 % 1008,7 hPa 0,0 l/m 0 min 0 min 0,0 UV-I 0 W/m 0,0 km/h (0 Bft)
19.05.2013 02:16 7,9 C 6,2 C 94 % 1008,7 hPa 0,0 l/m 0 min 0 min 0,0 UV-I 0 W/m 0,0 km/h (0 Bft)
19.05.2013 02:18 7,9 C 5,7 C 94 % 1008,7 hPa 0,0 l/m 0 min 0 min 0,0 UV-I 0 W/m 0,0 km/h (0 Bft)
19.05.2013 02:20 7,9 C 5,7 C 94 % 1008,8 hPa 0,0 l/m 0 min 0 min 0,0 UV-I 0 W/m 0,0 km/h (0 Bft)
19.05.2013 02:22 7,9 C 5,7 C 94 % 1008,8 hPa 0,0 l/m 0 min 0 min 0,0 UV-I 0 W/m 0,0 km/h (0 Bft)
19.05.2013 02:24 7,8 C 5,7 C 94 % 1008,7 hPa 0,0 l/m 0 min 0 min 0,0 UV-I 0 W/m 0,0 km/h (0 Bft)
19.05.2013 02:26 7,8 C 5,7 C 94 % 1008,8 hPa 0,0 l/m 0 min 0 min 0,0 UV-I 0 W/m 0,0 km/h (0 Bft)
19.05.2013 02:28 7,8 C 5,7 C 94 % 1008,8 hPa 0,0 l/m 0 min 0 min 0,0 UV-I 0 W/m 0,0 km/h (0 Bft)
19.05.2013 02:30 7,8 C 5,7 C 94 % 1008,6 hPa 0,0 l/m 0 min 0 min 0,0 UV-I 0 W/m 0,0 km/h (0 Bft)
19.05.2013 02:32 7,7 C 5,7 C 94 % 1008,6 hPa 0,0 l/m 0 min 0 min 0,0 UV-I 0 W/m 0,0 km/h (0 Bft)
19.05.2013 02:34 7,7 C 5,7 C 94 % 1008,7 hPa 0,0 l/m 0 min 0 min 0,0 UV-I 0 W/m 0,0 km/h (0 Bft)
19.05.2013 02:36 7,7 C 5,7 C 94 % 1008,6 hPa 0,0 l/m 0 min 0 min 0,0 UV-I 0 W/m 0,0 km/h (0 Bft)
19.05.2013 02:38 7,7 C 5,7 C 94 % 1008,6 hPa 0,0 l/m 0 min 0 min 0,0 UV-I 0 W/m 0,0 km/h (0 Bft)
19.05.2013 02:40 7,6 C 5,7 C 94 % 1008,5 hPa 0,0 l/m 0 min 0 min 0,0 UV-I 0 W/m 0,0 km/h (0 Bft)
19.05.2013 02:42 7,6 C 5,7 C 94 % 1008,6 hPa 0,0 l/m 0 min 0 min 0,0 UV-I 0 W/m 0,0 km/h (0 Bft)
19.05.2013 02:44 7,6 C 5,7 C 94 % 1008,5 hPa 0,0 l/m 0 min 0 min 0,0 UV-I 0 W/m 0,0 km/h (0 Bft)
19.05.2013 02:46 7,5 C 5,7 C 94 % 1008,6 hPa 0,0 l/m 0 min 0 min 0,0 UV-I 0 W/m 0,0 km/h (0 Bft)
19.05.2013 02:48 7,4 C 5,7 C 94 % 1008,5 hPa 0,0 l/m 0 min 0 min 0,0 UV-I 0 W/m 0,0 km/h (0 Bft)
19.05.2013 02:50 7,4 C 5,7 C 94 % 1008,5 hPa 0,0 l/m 0 min 0 min 0,0 UV-I 0 W/m 0,0 km/h (0 Bft)
19.05.2013 02:52 7,4 C 5,7 C 94 % 1008,6 hPa 0,0 l/m 0 min 0 min 0,0 UV-I 0 W/m 0,0 km/h (0 Bft)
19.05.2013 02:54 7,4 C 6,2 C 94 % 1008,5 hPa 0,0 l/m 0 min 0 min 0,0 UV-I 0 W/m 0,0 km/h (0 Bft)
19.05.2013 02:56 7,4 C 6,2 C 94 % 1008,5 hPa 0,0 l/m 0 min 0 min 0,0 UV-I 0 W/m 0,0 km/h (0 Bft)
19.05.2013 02:58 7,3 C 5,7 C 94 % 1008,5 hPa 0,0 l/m 0 min 0 min 0,0 UV-I 0 W/m 0,0 km/h (0 Bft)
19.05.2013 03:00 7,3 C 5,7 C 94 % 1008,5 hPa 0,0 l/m 0 min 0 min 0,0 UV-I 0 W/m 0,0 km/h (0 Bft)
19.05.2013 03:02 7,3 C 5,7 C 94 % 1008,5 hPa 0,0 l/m 0 min 0 min 0,0 UV-I 0 W/m 0,0 km/h (0 Bft)
19.05.2013 03:04 7,3 C 5,7 C 94 % 1008,5 hPa 0,0 l/m 0 min 0 min 0,0 UV-I 0 W/m 0,0 km/h (0 Bft)
19.05.2013 03:06 7,3 C 5,7 C 94 % 1008,5 hPa 0,0 l/m 0 min 0 min 0,0 UV-I 0 W/m 0,0 km/h (0 Bft)
19.05.2013 03:08 7,3 C 5,7 C 94 % 1008,6 hPa 0,0 l/m 0 min 0 min 0,0 UV-I 0 W/m 0,0 km/h (0 Bft)
19.05.2013 03:10 7,3 C 5,7 C 94 % 1008,6 hPa 0,0 l/m 0 min 0 min 0,0 UV-I 0 W/m 0,0 km/h (0 Bft)
19.05.2013 03:12 7,2 C 5,1 C 94 % 1008,5 hPa 0,0 l/m 0 min 0 min 0,0 UV-I 0 W/m 0,0 km/h (0 Bft)
19.05.2013 03:14 7,2 C 5,1 C 94 % 1008,5 hPa 0,0 l/m 0 min 0 min 0,0 UV-I 0 W/m 0,0 km/h (0 Bft)
19.05.2013 03:16 7,2 C 5,1 C 94 % 1008,5 hPa 0,0 l/m 0 min 0 min 0,0 UV-I 0 W/m 0,0 km/h (0 Bft)
19.05.2013 03:18 7,2 C 5,7 C 94 % 1008,5 hPa 0,0 l/m 0 min 0 min 0,0 UV-I 0 W/m 0,0 km/h (0 Bft)
19.05.2013 03:20 7,2 C 5,1 C 95 % 1008,6 hPa 0,0 l/m 0 min 0 min 0,0 UV-I 0 W/m 0,0 km/h (0 Bft)
19.05.2013 03:22 7,1 C 5,1 C 95 % 1008,7 hPa 0,0 l/m 0 min 0 min 0,0 UV-I 0 W/m 0,0 km/h (0 Bft)
19.05.2013 03:24 7,1 C 5,1 C 95 % 1008,7 hPa 0,0 l/m 0 min 0 min 0,0 UV-I 0 W/m 0,0 km/h (0 Bft)
19.05.2013 03:26 7,1 C 5,1 C 95 % 1008,6 hPa 0,0 l/m 0 min 0 min 0,0 UV-I 0 W/m 0,0 km/h (0 Bft)
19.05.2013 03:28 7,1 C 5,1 C 95 % 1008,6 hPa 0,0 l/m 0 min 0 min 0,0 UV-I 0 W/m 0,0 km/h (0 Bft)
19.05.2013 03:30 7,1 C 5,7 C 95 % 1008,5 hPa 0,0 l/m 0 min 0 min 0,0 UV-I 0 W/m 0,0 km/h (0 Bft)
19.05.2013 03:32 7,1 C 5,7 C 95 % 1008,5 hPa 0,0 l/m 0 min 0 min 0,0 UV-I 0 W/m 0,0 km/h (0 Bft)
19.05.2013 03:34 7,0 C 5,7 C 95 % 1008,6 hPa 0,0 l/m 0 min 0 min 0,0 UV-I 0 W/m 0,0 km/h (0 Bft)
19.05.2013 03:36 7,0 C 5,7 C 95 % 1008,5 hPa 0,0 l/m 0 min 0 min 0,0 UV-I 0 W/m 0,0 km/h (0 Bft)
19.05.2013 03:38 7,0 C 5,1 C 95 % 1008,5 hPa 0,0 l/m 0 min 0 min 0,0 UV-I 0 W/m 0,0 km/h (0 Bft)
19.05.2013 03:40 6,9 C 5,1 C 95 % 1008,5 hPa 0,0 l/m 0 min 0 min 0,0 UV-I 0 W/m 0,0 km/h (0 Bft)
19.05.2013 03:42 6,9 C 5,1 C 95 % 1008,5 hPa 0,0 l/m 0 min 0 min 0,0 UV-I 0 W/m 0,0 km/h (0 Bft)
19.05.2013 03:44 6,9 C 5,1 C 95 % 1008,6 hPa 0,0 l/m 0 min 0 min 0,0 UV-I 0 W/m 0,0 km/h (0 Bft)
19.05.2013 03:46 6,9 C 5,1 C 95 % 1008,6 hPa 0,0 l/m 0 min 0 min 0,0 UV-I 0 W/m 0,0 km/h (0 Bft)
19.05.2013 03:48 6,9 C 5,1 C 95 % 1008,7 hPa 0,0 l/m 0 min 0 min 0,0 UV-I 0 W/m 0,0 km/h (0 Bft)
19.05.2013 03:50 6,9 C 5,1 C 95 % 1008,7 hPa 0,0 l/m 0 min 0 min 0,0 UV-I 0 W/m 0,0 km/h (0 Bft)
19.05.2013 03:52 6,8 C 5,1 C 95 % 1008,7 hPa 0,0 l/m 0 min 0 min 0,0 UV-I 0 W/m 0,0 km/h (0 Bft)
19.05.2013 03:54 6,8 C 5,1 C 95 % 1008,7 hPa 0,0 l/m 0 min 0 min 0,0 UV-I 0 W/m 0,0 km/h (0 Bft)
19.05.2013 03:56 6,8 C 5,1 C 95 % 1008,8 hPa 0,0 l/m 0 min 0 min 0,0 UV-I 0 W/m 0,0 km/h (0 Bft)
19.05.2013 03:58 6,8 C 5,1 C 95 % 1008,7 hPa 0,0 l/m 0 min 0 min 0,0 UV-I 0 W/m 0,0 km/h (0 Bft)
19.05.2013 04:00 6,8 C 5,1 C 95 % 1008,6 hPa 0,0 l/m 0 min 0 min 0,0 UV-I 0 W/m 0,0 km/h (0 Bft)
19.05.2013 04:02 6,8 C 5,1 C 95 % 1008,6 hPa 0,0 l/m 0 min 0 min 0,0 UV-I 0 W/m 0,0 km/h (0 Bft)
19.05.2013 04:04 6,8 C 5,1 C 95 % 1008,6 hPa 0,0 l/m 0 min 0 min 0,0 UV-I 0 W/m 0,0 km/h (0 Bft)
19.05.2013 04:06 6,7 C 5,1 C 95 % 1008,7 hPa 0,0 l/m 0 min 0 min 0,0 UV-I 0 W/m 0,0 km/h (0 Bft)
19.05.2013 04:08 6,7 C 5,1 C 95 % 1008,8 hPa 0,0 l/m 0 min 0 min 0,0 UV-I 0 W/m 0,0 km/h (0 Bft)
19.05.2013 04:10 6,7 C 5,1 C 95 % 1008,8 hPa 0,0 l/m 0 min 0 min 0,0 UV-I 0 W/m 0,0 km/h (0 Bft)
19.05.2013 04:12 6,7 C 5,1 C 95 % 1008,8 hPa 0,0 l/m 0 min 0 min 0,0 UV-I 0 W/m 0,0 km/h (0 Bft)
19.05.2013 04:14 6,7 C 5,1 C 95 % 1008,7 hPa 0,0 l/m 0 min 0 min 0,0 UV-I 0 W/m 0,0 km/h (0 Bft)
19.05.2013 04:16 6,6 C 5,1 C 95 % 1008,7 hPa 0,0 l/m 0 min 0 min 0,0 UV-I 0 W/m 0,0 km/h (0 Bft)
19.05.2013 04:18 6,6 C 5,1 C 95 % 1008,7 hPa 0,0 l/m 0 min 0 min 0,0 UV-I 0 W/m 0,0 km/h (0 Bft)
19.05.2013 04:20 6,6 C 5,1 C 95 % 1008,7 hPa 0,0 l/m 0 min 0 min 0,0 UV-I 0 W/m 0,0 km/h (0 Bft)
19.05.2013 04:22 6,6 C 5,1 C 95 % 1008,8 hPa 0,0 l/m 0 min 0 min 0,0 UV-I 0 W/m 0,0 km/h (0 Bft)
19.05.2013 04:24 6,6 C 5,1 C 95 % 1008,8 hPa 0,0 l/m 0 min 0 min 0,0 UV-I 0 W/m 0,0 km/h (0 Bft)
19.05.2013 04:26 6,5 C 5,1 C 95 % 1008,9 hPa 0,0 l/m 0 min 0 min 0,0 UV-I 0 W/m 0,0 km/h (0 Bft)
19.05.2013 04:28 6,5 C 5,1 C 95 % 1008,7 hPa 0,0 l/m 0 min 0 min 0,0 UV-I 0 W/m 0,0 km/h (0 Bft)
19.05.2013 04:30 6,5 C 5,1 C 95 % 1008,7 hPa 0,0 l/m 0 min 0 min 0,0 UV-I 0 W/m 0,0 km/h (0 Bft)
19.05.2013 04:32 6,4 C 5,1 C 95 % 1008,6 hPa 0,0 l/m 0 min 0 min 0,0 UV-I 0 W/m 2,6 km/h (1 Bft)
19.05.2013 04:34 6,4 C 5,7 C 95 % 1008,5 hPa 0,0 l/m 0 min 0 min 0,0 UV-I 0 W/m 0,0 km/h (0 Bft)
19.05.2013 04:36 6,5 C 5,7 C 95 % 1008,5 hPa 0,0 l/m 0 min 0 min 0,0 UV-I 0 W/m 0,0 km/h (0 Bft)
19.05.2013 04:38 6,6 C 6,2 C 95 % 1008,4 hPa 0,0 l/m 0 min 0 min 0,0 UV-I 0 W/m 2,6 km/h (1 Bft)
19.05.2013 04:40 6,6 C 6,2 C 95 % 1008,4 hPa 0,0 l/m 0 min 0 min 0,0 UV-I 0 W/m 0,0 km/h (0 Bft)
19.05.2013 04:42 6,7 C 6,2 C 95 % 1008,5 hPa 0,0 l/m 0 min 0 min 0,0 UV-I 0 W/m 2,6 km/h (1 Bft)
19.05.2013 04:44 6,7 C 6,2 C 95 % 1008,4 hPa 0,0 l/m 0 min 0 min 0,0 UV-I 0 W/m 0,0 km/h (0 Bft)
19.05.2013 04:46 6,8 C 6,2 C 95 % 1008,5 hPa 0,0 l/m 0 min 0 min 0,0 UV-I 0 W/m 0,0 km/h (0 Bft)
19.05.2013 04:48 6,9 C 6,2 C 96 % 1008,4 hPa 0,0 l/m 0 min 0 min 0,0 UV-I 0 W/m 0,0 km/h (0 Bft)
19.05.2013 04:50 6,9 C 6,2 C 96 % 1008,4 hPa 0,0 l/m 0 min 0 min 0,0 UV-I 0 W/m 0,0 km/h (0 Bft)
19.05.2013 04:52 6,9 C 6,2 C 96 % 1008,3 hPa 0,0 l/m 0 min 0 min 0,0 UV-I 0 W/m 2,6 km/h (1 Bft)
19.05.2013 04:54 7,0 C 6,2 C 96 % 1008,3 hPa 0,0 l/m 0 min 0 min 0,0 UV-I 0 W/m 0,0 km/h (0 Bft)
19.05.2013 04:56 7,1 C 6,2 C 96 % 1008,3 hPa 0,0 l/m 0 min 0 min 0,0 UV-I 0 W/m 0,0 km/h (0 Bft)
19.05.2013 04:58 7,1 C 6,2 C 96 % 1008,3 hPa 0,0 l/m 0 min 0 min 0,0 UV-I 0 W/m 0,0 km/h (0 Bft)
19.05.2013 05:00 7,2 C 6,2 C 96 % 1008,3 hPa 0,0 l/m 0 min 0 min 0,0 UV-I 0 W/m 0,0 km/h (0 Bft)
19.05.2013 05:02 7,2 C 5,7 C 96 % 1008,3 hPa 0,0 l/m 0 min 0 min 0,0 UV-I 0 W/m 0,0 km/h (0 Bft)
19.05.2013 05:04 7,2 C 5,7 C 96 % 1008,3 hPa 0,0 l/m 0 min 0 min 0,0 UV-I 0 W/m 0,0 km/h (0 Bft)
19.05.2013 05:06 7,2 C 5,7 C 96 % 1008,3 hPa 0,0 l/m 0 min 0 min 0,0 UV-I 0 W/m 0,0 km/h (0 Bft)
19.05.2013 05:08 7,2 C 5,7 C 96 % 1008,3 hPa 0,0 l/m 0 min 0 min 0,0 UV-I 0 W/m 0,0 km/h (0 Bft)
19.05.2013 05:10 7,2 C 5,7 C 96 % 1008,3 hPa 0,0 l/m 0 min 0 min 0,0 UV-I 0 W/m 0,0 km/h (0 Bft)
19.05.2013 05:12 7,1 C 5,1 C 96 % 1008,3 hPa 0,0 l/m 0 min 0 min 0,0 UV-I 0 W/m 0,0 km/h (0 Bft)
19.05.2013 05:14 7,1 C 5,1 C 96 % 1008,3 hPa 0,0 l/m 0 min 0 min 0,0 UV-I 0 W/m 0,0 km/h (0 Bft)
19.05.2013 05:16 7,1 C 5,1 C 96 % 1008,4 hPa 0,0 l/m 0 min 0 min 0,0 UV-I 0 W/m 0,0 km/h (0 Bft)
19.05.2013 05:18 7,1 C 5,1 C 96 % 1008,3 hPa 0,0 l/m 0 min 0 min 0,0 UV-I 0 W/m 0,0 km/h (0 Bft)
19.05.2013 05:20 7,1 C 5,1 C 96 % 1008,4 hPa 0,0 l/m 0 min 0 min 0,0 UV-I 0 W/m 0,0 km/h (0 Bft)
19.05.2013 05:22 7,1 C 5,1 C 96 % 1008,4 hPa 0,0 l/m 0 min 0 min 0,0 UV-I 0 W/m 0,0 km/h (0 Bft)
19.05.2013 05:24 7,0 C 5,1 C 96 % 1008,5 hPa 0,0 l/m 0 min 0 min 0,0 UV-I 0 W/m 0,0 km/h (0 Bft)
19.05.2013 05:26 7,0 C 5,1 C 96 % 1008,5 hPa 0,0 l/m 0 min 0 min 0,0 UV-I 0 W/m 0,0 km/h (0 Bft)
19.05.2013 05:28 6,9 C 5,1 C 96 % 1008,5 hPa 0,0 l/m 0 min 0 min 0,0 UV-I 0 W/m 0,0 km/h (0 Bft)
19.05.2013 05:30 6,9 C 5,1 C 96 % 1008,4 hPa 0,0 l/m 0 min 0 min 0,0 UV-I 0 W/m 0,0 km/h (0 Bft)
19.05.2013 05:32 6,9 C 5,1 C 96 % 1008,4 hPa 0,0 l/m 0 min 0 min 0,0 UV-I 0 W/m 0,0 km/h (0 Bft)
19.05.2013 05:34 6,9 C 5,1 C 96 % 1008,4 hPa 0,0 l/m 0 min 0 min 0,0 UV-I 0 W/m 0,0 km/h (0 Bft)
19.05.2013 05:36 6,8 C 5,1 C 96 % 1008,5 hPa 0,0 l/m 0 min 0 min 0,0 UV-I 0 W/m 0,0 km/h (0 Bft)
19.05.2013 05:38 6,8 C 5,1 C 96 % 1008,5 hPa 0,0 l/m 0 min 0 min 0,0 UV-I 5 W/m 0,0 km/h (0 Bft)
19.05.2013 05:40 6,8 C 5,1 C 96 % 1008,5 hPa 0,0 l/m 0 min 0 min 0,0 UV-I 5 W/m 0,0 km/h (0 Bft)
19.05.2013 05:42 6,8 C 5,1 C 96 % 1008,5 hPa 0,0 l/m 0 min 0 min 0,0 UV-I 5 W/m 0,0 km/h (0 Bft)
19.05.2013 05:44 6,7 C 5,1 C 96 % 1008,7 hPa 0,0 l/m 0 min 0 min 0,0 UV-I 7 W/m 0,0 km/h (0 Bft)
19.05.2013 05:46 6,7 C 5,1 C 96 % 1008,7 hPa 0,0 l/m 0 min 0 min 0,0 UV-I 7 W/m 0,0 km/h (0 Bft)
19.05.2013 05:48 6,7 C 5,1 C 96 % 1008,7 hPa 0,0 l/m 0 min 0 min 0,0 UV-I 9 W/m 0,0 km/h (0 Bft)
19.05.2013 05:50 6,7 C 5,1 C 96 % 1008,8 hPa 0,0 l/m 0 min 0 min 0,0 UV-I 9 W/m 0,0 km/h (0 Bft)
19.05.2013 05:52 6,6 C 5,1 C 96 % 1008,9 hPa 0,0 l/m 0 min 0 min 0,0 UV-I 11 W/m 0,0 km/h (0 Bft)
19.05.2013 05:54 6,6 C 5,1 C 96 % 1008,9 hPa 0,0 l/m 0 min 0 min 0,0 UV-I 11 W/m 0,0 km/h (0 Bft)
19.05.2013 05:56 6,6 C 4,6 C 96 % 1008,8 hPa 0,0 l/m 0 min 0 min 0,0 UV-I 11 W/m 0,0 km/h (0 Bft)
19.05.2013 05:58 6,6 C 4,6 C 96 % 1008,8 hPa 0,0 l/m 0 min 0 min 0,0 UV-I 12 W/m 0,0 km/h (0 Bft)
19.05.2013 06:00 6,6 C 4,6 C 96 % 1008,9 hPa 0,0 l/m 0 min 0 min 0,0 UV-I 14 W/m 0,0 km/h (0 Bft)
19.05.2013 06:02 6,5 C 4,6 C 96 % 1008,9 hPa 0,0 l/m 0 min 0 min 0,0 UV-I 14 W/m 0,0 km/h (0 Bft)
19.05.2013 06:04 6,4 C 4,6 C 96 % 1008,9 hPa 0,0 l/m 0 min 0 min 0,0 UV-I 14 W/m 0,0 km/h (0 Bft)
19.05.2013 06:06 6,4 C 4,6 C 96 % 1008,9 hPa 0,0 l/m 0 min 0 min 0,0 UV-I 16 W/m 0,0 km/h (0 Bft)
19.05.2013 06:08 6,4 C 4,6 C 96 % 1008,8 hPa 0,0 l/m 0 min 0 min 0,0 UV-I 16 W/m 0,0 km/h (0 Bft)
19.05.2013 06:10 6,4 C 4,6 C 96 % 1008,8 hPa 0,0 l/m 0 min 0 min 0,0 UV-I 18 W/m 0,0 km/h (0 Bft)
19.05.2013 06:12 6,4 C 4,6 C 96 % 1008,8 hPa 0,0 l/m 0 min 0 min 0,0 UV-I 18 W/m 0,0 km/h (0 Bft)
19.05.2013 06:14 6,3 C 5,1 C 96 % 1008,8 hPa 0,0 l/m 0 min 0 min 0,0 UV-I 19 W/m 0,0 km/h (0 Bft)
19.05.2013 06:16 6,3 C 5,1 C 96 % 1008,9 hPa 0,0 l/m 0 min 0 min 0,0 UV-I 19 W/m 0,0 km/h (0 Bft)
19.05.2013 06:18 6,3 C 5,1 C 96 % 1008,9 hPa 0,0 l/m 0 min 0 min 0,0 UV-I 21 W/m 0,0 km/h (0 Bft)
19.05.2013 06:20 6,3 C 5,1 C 96 % 1008,8 hPa 0,0 l/m 0 min 0 min 0,0 UV-I 23 W/m 0,0 km/h (0 Bft)
19.05.2013 06:22 6,3 C 5,1 C 96 % 1008,8 hPa 0,0 l/m 0 min 0 min 0,0 UV-I 23 W/m 0,0 km/h (0 Bft)
19.05.2013 06:24 6,3 C 5,1 C 96 % 1008,8 hPa 0,0 l/m 0 min 0 min 0,0 UV-I 25 W/m 0,0 km/h (0 Bft)
19.05.2013 06:26 6,2 C 5,1 C 96 % 1008,9 hPa 0,0 l/m 0 min 0 min 0,0 UV-I 25 W/m 0,0 km/h (0 Bft)
19.05.2013 06:28 6,2 C 5,1 C 96 % 1008,9 hPa 0,0 l/m 0 min 0 min 0,0 UV-I 26 W/m 0,0 km/h (0 Bft)
19.05.2013 06:30 6,2 C 5,1 C 96 % 1008,9 hPa 0,0 l/m 0 min 0 min 0,0 UV-I 28 W/m 0,0 km/h (0 Bft)
19.05.2013 06:32 6,2 C 5,1 C 96 % 1008,9 hPa 0,0 l/m 0 min 0 min 0,0 UV-I 28 W/m 0,0 km/h (0 Bft)
19.05.2013 06:34 6,2 C 5,1 C 96 % 1008,9 hPa 0,0 l/m 0 min 0 min 0,0 UV-I 30 W/m 0,0 km/h (0 Bft)
19.05.2013 06:36 6,2 C 5,1 C 96 % 1008,9 hPa 0,0 l/m 0 min 0 min 0,0 UV-I 30 W/m 0,0 km/h (0 Bft)
19.05.2013 06:38 6,2 C 5,1 C 96 % 1008,9 hPa 0,0 l/m 0 min 0 min 0,0 UV-I 32 W/m 0,0 km/h (0 Bft)
19.05.2013 06:40 6,2 C 5,1 C 96 % 1009,0 hPa 0,0 l/m 0 min 0 min 0,0 UV-I 32 W/m 0,0 km/h (0 Bft)
19.05.2013 06:42 6,2 C 5,1 C 96 % 1008,9 hPa 0,0 l/m 0 min 0 min 0,0 UV-I 33 W/m 0,0 km/h (0 Bft)
19.05.2013 06:44 6,1 C 5,1 C 96 % 1009,0 hPa 0,0 l/m 0 min 0 min 0,0 UV-I 35 W/m 0,0 km/h (0 Bft)
19.05.2013 06:46 6,1 C 5,1 C 96 % 1009,0 hPa 0,0 l/m 0 min 0 min 0,0 UV-I 35 W/m 0,0 km/h (0 Bft)
19.05.2013 06:48 6,1 C 5,1 C 96 % 1009,0 hPa 0,0 l/m 0 min 0 min 0,0 UV-I 39 W/m 0,0 km/h (0 Bft)
19.05.2013 06:50 6,1 C 5,1 C 96 % 1009,0 hPa 0,0 l/m 0 min 0 min 0,0 UV-I 39 W/m 0,0 km/h (0 Bft)
19.05.2013 06:52 6,1 C 5,1 C 96 % 1009,0 hPa 0,0 l/m 0 min 0 min 0,0 UV-I 40 W/m 0,0 km/h (0 Bft)
19.05.2013 06:54 6,1 C 5,7 C 96 % 1009,0 hPa 0,0 l/m 0 min 0 min 0,0 UV-I 40 W/m 0,0 km/h (0 Bft)
19.05.2013 06:56 6,1 C 5,7 C 96 % 1009,0 hPa 0,0 l/m 0 min 0 min 0,0 UV-I 44 W/m 0,0 km/h (0 Bft)
19.05.2013 06:58 6,1 C 5,7 C 96 % 1009,0 hPa 0,0 l/m 0 min 0 min 0,0 UV-I 46 W/m 0,0 km/h (0 Bft)
19.05.2013 07:00 6,1 C 5,7 C 97 % 1009,0 hPa 0,0 l/m 0 min 0 min 0,0 UV-I 44 W/m 0,0 km/h (0 Bft)
19.05.2013 07:02 6,2 C 5,7 C 97 % 1009,1 hPa 0,0 l/m 0 min 0 min 0,0 UV-I 47 W/m 0,0 km/h (0 Bft)
19.05.2013 07:04 6,2 C 5,7 C 97 % 1009,0 hPa 0,0 l/m 0 min 0 min 0,0 UV-I 49 W/m 0,0 km/h (0 Bft)
19.05.2013 07:06 6,2 C 5,7 C 97 % 1009,0 hPa 0,0 l/m 0 min 0 min 0,0 UV-I 49 W/m 0,0 km/h (0 Bft)
19.05.2013 07:08 6,2 C 5,7 C 97 % 1009,0 hPa 0,0 l/m 0 min 0 min 0,0 UV-I 51 W/m 0,0 km/h (0 Bft)
19.05.2013 07:10 6,2 C 5,7 C 97 % 1009,0 hPa 0,0 l/m 0 min 0 min 0,0 UV-I 51 W/m 0,0 km/h (0 Bft)
19.05.2013 07:12 6,2 C 6,2 C 97 % 1008,9 hPa 0,0 l/m 0 min 0 min 0,0 UV-I 53 W/m 0,0 km/h (0 Bft)
19.05.2013 07:14 6,2 C 6,2 C 97 % 1009,0 hPa 0,0 l/m 0 min 0 min 0,0 UV-I 53 W/m 0,0 km/h (0 Bft)
19.05.2013 07:16 6,3 C 6,2 C 97 % 1009,1 hPa 0,0 l/m 0 min 0 min 0,0 UV-I 60 W/m 0,0 km/h (0 Bft)
19.05.2013 07:18 6,3 C 6,2 C 97 % 1009,1 hPa 0,0 l/m 0 min 0 min 0,0 UV-I 60 W/m 0,0 km/h (0 Bft)
19.05.2013 07:20 6,4 C 6,2 C 97 % 1009,1 hPa 0,0 l/m 0 min 0 min 0,0 UV-I 60 W/m 0,0 km/h (0 Bft)
19.05.2013 07:22 6,4 C 6,2 C 97 % 1009,0 hPa 0,0 l/m 0 min 0 min 0,0 UV-I 70 W/m 0,0 km/h (0 Bft)
19.05.2013 07:24 6,6 C 6,8 C 97 % 1009,1 hPa 0,0 l/m 0 min 0 min 0,0 UV-I 65 W/m 5,1 km/h (1 Bft)
19.05.2013 07:26 6,7 C 6,8 C 97 % 1009,0 hPa 0,0 l/m 0 min 0 min 0,0 UV-I 67 W/m 0,0 km/h (0 Bft)
19.05.2013 07:28 6,7 C 6,8 C 97 % 1009,1 hPa 0,0 l/m 0 min 0 min 0,0 UV-I 63 W/m 0,0 km/h (0 Bft)
19.05.2013 07:30 6,9 C 7,3 C 97 % 1009,1 hPa 0,0 l/m 0 min 0 min 0,0 UV-I 65 W/m 2,6 km/h (1 Bft)
19.05.2013 07:32 7,1 C 7,3 C 97 % 1009,0 hPa 0,0 l/m 0 min 0 min 0,0 UV-I 65 W/m 0,0 km/h (0 Bft)
19.05.2013 07:34 7,2 C 7,3 C 97 % 1009,0 hPa 0,0 l/m 0 min 0 min 0,0 UV-I 65 W/m 0,0 km/h (0 Bft)
19.05.2013 07:36 7,3 C 7,3 C 97 % 1009,0 hPa 0,0 l/m 0 min 0 min 0,0 UV-I 65 W/m 0,0 km/h (0 Bft)
19.05.2013 07:38 7,3 C 7,3 C 97 % 1009,1 hPa 0,0 l/m 0 min 0 min 0,0 UV-I 67 W/m 0,0 km/h (0 Bft)
19.05.2013 07:40 7,5 C 7,3 C 98 % 1009,1 hPa 0,0 l/m 0 min 0 min 0,0 UV-I 79 W/m 0,0 km/h (0 Bft)
19.05.2013 07:42 7,6 C 7,3 C 97 % 1009,0 hPa 0,0 l/m 0 min 0 min 0,0 UV-I 79 W/m 5,1 km/h (1 Bft)
19.05.2013 07:44 7,7 C 7,9 C 98 % 1009,0 hPa 0,0 l/m 0 min 0 min 0,0 UV-I 81 W/m 0,0 km/h (0 Bft)
19.05.2013 07:46 7,8 C 7,9 C 98 % 1008,9 hPa 0,0 l/m 0 min 0 min 0,0 UV-I 74 W/m 0,0 km/h (0 Bft)
19.05.2013 07:48 7,9 C 7,9 C 98 % 1008,9 hPa 0,0 l/m 0 min 0 min 0,0 UV-I 74 W/m 0,0 km/h (0 Bft)
19.05.2013 07:50 7,9 C 7,9 C 98 % 1008,9 hPa 0,0 l/m 0 min 0 min 0,0 UV-I 72 W/m 0,0 km/h (0 Bft)
19.05.2013 07:52 7,9 C 7,9 C 98 % 1009,0 hPa 0,0 l/m 0 min 0 min 0,0 UV-I 81 W/m 0,0 km/h (0 Bft)
19.05.2013 07:54 8,0 C 7,9 C 98 % 1008,9 hPa 0,0 l/m 0 min 0 min 0,0 UV-I 81 W/m 0,0 km/h (0 Bft)
19.05.2013 07:56 8,1 C 7,9 C 98 % 1008,9 hPa 0,0 l/m 0 min 0 min 0,0 UV-I 83 W/m 0,0 km/h (0 Bft)
19.05.2013 07:58 8,1 C 7,9 C 98 % 1008,9 hPa 0,0 l/m 0 min 0 min 0,0 UV-I 139 W/m 0,0 km/h (0 Bft)
19.05.2013 08:00 8,2 C 7,9 C 98 % 1008,9 hPa 0,0 l/m 2 min 0 min 0,0 UV-I 204 W/m 2,6 km/h (1 Bft)
19.05.2013 08:02 8,3 C 7,9 C 98 % 1008,9 hPa 0,0 l/m 2 min 0 min 0,0 UV-I 244 W/m 0,0 km/h (0 Bft)
19.05.2013 08:04 8,3 C 8,4 C 98 % 1008,9 hPa 0,0 l/m 2 min 0 min 0,0 UV-I 244 W/m 0,0 km/h (0 Bft)
19.05.2013 08:06 8,4 C 8,4 C 98 % 1008,9 hPa 0,0 l/m 2 min 0 min 0,0 UV-I 241 W/m 0,0 km/h (0 Bft)
19.05.2013 08:08 8,5 C 8,4 C 98 % 1009,0 hPa 0,0 l/m 2 min 0 min 0,0 UV-I 260 W/m 2,6 km/h (1 Bft)
19.05.2013 08:10 8,6 C 8,4 C 98 % 1009,0 hPa 0,0 l/m 2 min 0 min 0,0 UV-I 262 W/m 7,7 km/h (2 Bft)
19.05.2013 08:12 8,6 C 8,4 C 98 % 1009,0 hPa 0,0 l/m 2 min 0 min 0,0 UV-I 274 W/m 0,0 km/h (0 Bft)
19.05.2013 08:14 8,7 C 9,0 C 98 % 1008,9 hPa 0,0 l/m 2 min 0 min 0,0 UV-I 216 W/m 0,0 km/h (0 Bft)
19.05.2013 08:16 8,7 C 9,0 C 98 % 1008,9 hPa 0,0 l/m 0 min 0 min 0,0 UV-I 176 W/m 7,7 km/h (2 Bft)
19.05.2013 08:18 8,8 C 9,0 C 98 % 1008,9 hPa 0,0 l/m 0 min 0 min 0,0 UV-I 137 W/m 2,6 km/h (1 Bft)
19.05.2013 08:20 8,8 C 9,0 C 98 % 1008,9 hPa 0,0 l/m 0 min 0 min 0,0 UV-I 197 W/m 2,6 km/h (1 Bft)
19.05.2013 08:22 8,8 C 9,0 C 98 % 1009,0 hPa 0,0 l/m 0 min 0 min 0,0 UV-I 181 W/m 0,0 km/h (0 Bft)
19.05.2013 08:24 8,9 C 9,0 C 98 % 1009,0 hPa 0,0 l/m 0 min 0 min 0,0 UV-I 183 W/m 2,6 km/h (1 Bft)
19.05.2013 08:26 8,9 C 9,0 C 98 % 1009,0 hPa 0,0 l/m 0 min 0 min 0,0 UV-I 204 W/m 0,0 km/h (0 Bft)
19.05.2013 08:28 9,0 C 9,0 C 98 % 1009,1 hPa 0,0 l/m 0 min 0 min 0,0 UV-I 195 W/m 0,0 km/h (0 Bft)
19.05.2013 08:30 9,0 C 9,0 C 98 % 1009,0 hPa 0,0 l/m 0 min 0 min 0,0 UV-I 204 W/m 12,9 km/h (3 Bft)
19.05.2013 08:32 9,0 C 9,6 C 98 % 1009,1 hPa 0,0 l/m 0 min 0 min 0,0 UV-I 197 W/m 12,9 km/h (3 Bft)
19.05.2013 08:34 9,1 C 9,0 C 98 % 1009,2 hPa 0,0 l/m 0 min 0 min 0,0 UV-I 162 W/m 5,1 km/h (1 Bft)
19.05.2013 08:36 9,1 C 9,0 C 98 % 1009,1 hPa 0,0 l/m 0 min 0 min 0,0 UV-I 160 W/m 0,0 km/h (0 Bft)
19.05.2013 08:38 9,1 C 9,0 C 98 % 1009,2 hPa 0,0 l/m 0 min 0 min 0,0 UV-I 134 W/m 0,0 km/h (0 Bft)
19.05.2013 08:40 9,1 C 9,0 C 98 % 1009,2 hPa 0,0 l/m 0 min 0 min 0,0 UV-I 142 W/m 7,7 km/h (2 Bft)
19.05.2013 08:42 9,1 C 9,6 C 98 % 1009,1 hPa 0,0 l/m 0 min 0 min 0,0 UV-I 214 W/m 7,7 km/h (2 Bft)
19.05.2013 08:44 9,1 C 9,6 C 98 % 1009,1 hPa 0,0 l/m 2 min 0 min 0,0 UV-I 308 W/m 2,6 km/h (1 Bft)
19.05.2013 08:46 9,2 C 10,1 C 98 % 1009,1 hPa 0,0 l/m 2 min 0 min 0,0 UV-I 343 W/m 7,7 km/h (2 Bft)
19.05.2013 08:48 9,3 C 10,1 C 98 % 1009,1 hPa 0,0 l/m 2 min 0 min 0,0 UV-I 334 W/m 7,7 km/h (2 Bft)
19.05.2013 08:50 9,3 C 10,1 C 98 % 1009,1 hPa 0,0 l/m 2 min 0 min 0,0 UV-I 325 W/m 7,7 km/h (2 Bft)
19.05.2013 08:52 9,3 C 10,7 C 98 % 1009,2 hPa 0,0 l/m 2 min 0 min 0,0 UV-I 350 W/m 7,7 km/h (2 Bft)
19.05.2013 08:54 9,4 C 10,7 C 98 % 1009,2 hPa 0,0 l/m 2 min 0 min 0,0 UV-I 350 W/m 7,7 km/h (2 Bft)
19.05.2013 08:56 9,5 C 10,7 C 98 % 1009,2 hPa 0,0 l/m 0 min 0 min 0,0 UV-I 156 W/m 7,7 km/h (2 Bft)
19.05.2013 08:58 9,5 C 10,1 C 98 % 1009,2 hPa 0,0 l/m 0 min 0 min 0,0 UV-I 134 W/m 10,3 km/h (2 Bft)
19.05.2013 09:00 9,5 C 10,1 C 98 % 1009,2 hPa 0,0 l/m 0 min 0 min 0,0 UV-I 155 W/m 5,1 km/h (1 Bft)
19.05.2013 09:02 9,6 C 10,1 C 98 % 1009,1 hPa 0,0 l/m 0 min 0 min 0,0 UV-I 229 W/m 0,0 km/h (0 Bft)
19.05.2013 09:04 9,6 C 10,1 C 98 % 1009,1 hPa 0,0 l/m 0 min 0 min 0,0 UV-I 229 W/m 12,9 km/h (3 Bft)
19.05.2013 09:06 9,6 C 10,1 C 98 % 1009,0 hPa 0,0 l/m 0 min 0 min 0,0 UV-I 204 W/m 7,7 km/h (2 Bft)
19.05.2013 09:08 9,6 C 10,1 C 98 % 1009,0 hPa 0,0 l/m 2 min 0 min 0,5 UV-I 411 W/m 12,9 km/h (3 Bft)
19.05.2013 09:10 9,6 C 10,1 C 98 % 1009,0 hPa 0,0 l/m 2 min 0 min 0,0 UV-I 304 W/m 10,3 km/h (2 Bft)
19.05.2013 09:12 9,6 C 10,7 C 98 % 1009,0 hPa 0,0 l/m 0 min 0 min 0,0 UV-I 239 W/m 10,3 km/h (2 Bft)
19.05.2013 09:14 9,6 C 10,7 C 98 % 1009,0 hPa 0,0 l/m 0 min 0 min 0,0 UV-I 230 W/m 12,9 km/h (3 Bft)
19.05.2013 09:16 9,7 C 10,1 C 98 % 1009,0 hPa 0,0 l/m 0 min 0 min 0,0 UV-I 197 W/m 12,9 km/h (3 Bft)
19.05.2013 09:18 9,7 C 10,1 C 98 % 1009,1 hPa 0,0 l/m 0 min 0 min 0,0 UV-I 239 W/m 12,9 km/h (3 Bft)
19.05.2013 09:20 9,7 C 10,1 C 98 % 1009,0 hPa 0,0 l/m 2 min 0 min 0,5 UV-I 320 W/m 10,3 km/h (2 Bft)
19.05.2013 09:22 9,7 C 10,7 C 98 % 1009,0 hPa 0,0 l/m 2 min 0 min 0,5 UV-I 432 W/m 7,7 km/h (2 Bft)
19.05.2013 09:24 9,8 C 10,7 C 98 % 1009,0 hPa 0,0 l/m 0 min 0 min 0,0 UV-I 264 W/m 10,3 km/h (2 Bft)
19.05.2013 09:26 9,9 C 11,2 C 98 % 1008,9 hPa 0,0 l/m 2 min 0 min 0,5 UV-I 306 W/m 0,0 km/h (0 Bft)
19.05.2013 09:28 10,1 C 11,2 C 98 % 1009,0 hPa 0,0 l/m 0 min 0 min 0,5 UV-I 246 W/m 15,4 km/h (3 Bft)
19.05.2013 09:30 10,1 C 11,2 C 98 % 1009,0 hPa 0,0 l/m 2 min 0 min 1,2 UV-I 316 W/m 12,9 km/h (3 Bft)
19.05.2013 09:32 10,2 C 11,2 C 98 % 1008,9 hPa 0,0 l/m 2 min 0 min 0,6 UV-I 643 W/m 15,4 km/h (3 Bft)
19.05.2013 09:34 10,3 C 10,7 C 98 % 1008,9 hPa 0,0 l/m 2 min 0 min 0,5 UV-I 643 W/m 12,9 km/h (3 Bft)
19.05.2013 09:36 10,3 C 10,7 C 98 % 1008,7 hPa 0,0 l/m 0 min 0 min 0,5 UV-I 179 W/m 12,9 km/h (3 Bft)
19.05.2013 09:38 10,3 C 10,7 C 98 % 1008,7 hPa 0,0 l/m 0 min 0 min 0,8 UV-I 248 W/m 5,1 km/h (1 Bft)
19.05.2013 09:40 10,4 C 10,7 C 98 % 1008,7 hPa 0,0 l/m 0 min 0 min 1,2 UV-I 248 W/m 0,0 km/h (0 Bft)
19.05.2013 09:42 10,4 C 11,2 C 97 % 1008,6 hPa 0,0 l/m 2 min 0 min 1,3 UV-I 527 W/m 20,6 km/h (4 Bft)
19.05.2013 09:44 10,6 C 12,3 C 98 % 1008,5 hPa 0,0 l/m 2 min 0 min 1,3 UV-I 519 W/m 12,9 km/h (3 Bft)
19.05.2013 09:46 10,7 C 13,4 C 97 % 1008,5 hPa 0,0 l/m 2 min 0 min 1,4 UV-I 527 W/m 7,7 km/h (2 Bft)
19.05.2013 09:48 10,8 C 14,6 C 97 % 1008,4 hPa 0,0 l/m 2 min 0 min 1,4 UV-I 534 W/m 7,7 km/h (2 Bft)
19.05.2013 09:50 10,9 C 15,1 C 97 % 1008,4 hPa 0,0 l/m 2 min 0 min 1,3 UV-I 512 W/m 12,9 km/h (3 Bft)
19.05.2013 09:52 11,1 C 15,7 C 97 % 1008,4 hPa 0,0 l/m 2 min 0 min 1,5 UV-I 548 W/m 10,3 km/h (2 Bft)
19.05.2013 09:54 11,3 C 16,8 C 97 % 1008,3 hPa 0,0 l/m 2 min 0 min 1,4 UV-I 541 W/m 10,3 km/h (2 Bft)
19.05.2013 09:56 11,4 C 15,7 C 97 % 1008,3 hPa 0,0 l/m 2 min 0 min 1,5 UV-I 508 W/m 20,6 km/h (4 Bft)
19.05.2013 09:58 11,5 C 15,7 C 96 % 1008,3 hPa 0,0 l/m 2 min 0 min 1,6 UV-I 543 W/m 20,6 km/h (4 Bft)
19.05.2013 10:00 11,6 C 16,8 C 96 % 1008,2 hPa 0,0 l/m 2 min 0 min 1,6 UV-I 568 W/m 10,3 km/h (2 Bft)
19.05.2013 10:02 11,7 C 17,9 C 96 % 1008,2 hPa 0,0 l/m 2 min 0 min 1,7 UV-I 566 W/m 0,0 km/h (0 Bft)
19.05.2013 10:04 11,8 C 18,4 C 95 % 1008,2 hPa 0,0 l/m 2 min 0 min 1,7 UV-I 564 W/m 20,6 km/h (4 Bft)
19.05.2013 10:06 12,0 C 17,9 C 95 % 1008,2 hPa 0,0 l/m 2 min 0 min 1,7 UV-I 555 W/m 18,0 km/h (3 Bft)
19.05.2013 10:08 12,2 C 17,9 C 95 % 1008,2 hPa 0,0 l/m 2 min 0 min 1,8 UV-I 573 W/m 15,4 km/h (3 Bft)
19.05.2013 10:10 12,3 C 17,9 C 95 % 1008,2 hPa 0,0 l/m 2 min 0 min 1,8 UV-I 580 W/m 12,9 km/h (3 Bft)
19.05.2013 10:12 12,4 C 17,9 C 94 % 1008,2 hPa 0,0 l/m 2 min 0 min 1,9 UV-I 594 W/m 10,3 km/h (2 Bft)
19.05.2013 10:14 12,6 C 17,3 C 94 % 1008,2 hPa 0,0 l/m 2 min 0 min 1,9 UV-I 580 W/m 18,0 km/h (3 Bft)
19.05.2013 10:16 12,7 C 17,9 C 93 % 1008,3 hPa 0,0 l/m 2 min 0 min 2,0 UV-I 601 W/m 20,6 km/h (4 Bft)
19.05.2013 10:18 12,8 C 18,4 C 92 % 1008,2 hPa 0,0 l/m 2 min 0 min 2,0 UV-I 599 W/m 18,0 km/h (3 Bft)
19.05.2013 10:20 12,9 C 18,4 C 92 % 1008,2 hPa 0,0 l/m 2 min 0 min 2,1 UV-I 608 W/m 20,6 km/h (4 Bft)
19.05.2013 10:22 13,1 C 18,4 C 90 % 1008,1 hPa 0,0 l/m 2 min 0 min 2,1 UV-I 615 W/m 18,0 km/h (3 Bft)
19.05.2013 10:24 13,2 C 19,0 C 90 % 1008,0 hPa 0,0 l/m 2 min 0 min 2,1 UV-I 608 W/m 12,9 km/h (3 Bft)
19.05.2013 10:26 13,3 C 19,0 C 90 % 1008,0 hPa 0,0 l/m 2 min 0 min 2,1 UV-I 598 W/m 15,4 km/h (3 Bft)
19.05.2013 10:28 13,5 C 18,4 C 89 % 1008,1 hPa 0,0 l/m 2 min 0 min 2,2 UV-I 612 W/m 15,4 km/h (3 Bft)
19.05.2013 10:30 13,6 C 17,9 C 88 % 1008,1 hPa 0,0 l/m 2 min 0 min 2,3 UV-I 635 W/m 20,6 km/h (4 Bft)
19.05.2013 10:32 13,7 C 19,0 C 87 % 1008,0 hPa 0,0 l/m 2 min 0 min 2,3 UV-I 636 W/m 15,4 km/h (3 Bft)
19.05.2013 10:34 13,8 C 19,6 C 87 % 1008,0 hPa 0,0 l/m 2 min 0 min 2,3 UV-I 645 W/m 12,9 km/h (3 Bft)
19.05.2013 10:36 13,9 C 19,6 C 87 % 1008,1 hPa 0,0 l/m 2 min 0 min 2,4 UV-I 654 W/m 12,9 km/h (3 Bft)
19.05.2013 10:38 14,0 C 20,1 C 86 % 1008,1 hPa 0,0 l/m 2 min 0 min 2,4 UV-I 638 W/m 10,3 km/h (2 Bft)
19.05.2013 10:40 14,0 C 20,1 C 86 % 1008,0 hPa 0,0 l/m 2 min 0 min 2,4 UV-I 628 W/m 20,6 km/h (4 Bft)
19.05.2013 10:42 14,2 C 20,1 C 85 % 1007,9 hPa 0,0 l/m 2 min 0 min 2,5 UV-I 657 W/m 18,0 km/h (3 Bft)
19.05.2013 10:44 14,3 C 21,2 C 85 % 1007,9 hPa 0,0 l/m 2 min 0 min 2,6 UV-I 664 W/m 7,7 km/h (2 Bft)
19.05.2013 10:46 14,4 C 21,2 C 85 % 1007,9 hPa 0,0 l/m 2 min 0 min 2,7 UV-I 670 W/m 10,3 km/h (2 Bft)
19.05.2013 10:48 14,6 C 21,8 C 85 % 1007,9 hPa 0,0 l/m 2 min 0 min 2,7 UV-I 670 W/m 2,6 km/h (1 Bft)
19.05.2013 10:50 14,7 C 22,3 C 84 % 1007,9 hPa 0,0 l/m 2 min 0 min 2,7 UV-I 671 W/m 0,0 km/h (0 Bft)
19.05.2013 10:52 14,8 C 22,3 C 84 % 1007,9 hPa 0,0 l/m 2 min 0 min 2,8 UV-I 671 W/m 12,9 km/h (3 Bft)
19.05.2013 10:54 15,0 C 22,3 C 83 % 1007,9 hPa 0,0 l/m 2 min 0 min 2,9 UV-I 686 W/m 10,3 km/h (2 Bft)
19.05.2013 10:56 15,2 C 22,3 C 82 % 1007,9 hPa 0,0 l/m 2 min 0 min 2,9 UV-I 682 W/m 20,6 km/h (4 Bft)
19.05.2013 10:58 15,3 C 21,8 C 81 % 1008,0 hPa 0,0 l/m 2 min 0 min 3,0 UV-I 694 W/m 10,3 km/h (2 Bft)
19.05.2013 11:00 15,3 C 22,3 C 81 % 1007,9 hPa 0,0 l/m 2 min 0 min 3,0 UV-I 700 W/m 7,7 km/h (2 Bft)
19.05.2013 11:02 15,4 C 20,7 C 80 % 1007,9 hPa 0,0 l/m 2 min 0 min 3,0 UV-I 689 W/m 10,3 km/h (2 Bft)
19.05.2013 11:04 15,5 C 20,7 C 79 % 1007,8 hPa 0,0 l/m 2 min 0 min 3,1 UV-I 701 W/m 18,0 km/h (3 Bft)
19.05.2013 11:06 15,6 C 21,2 C 79 % 1007,8 hPa 0,0 l/m 2 min 0 min 3,0 UV-I 693 W/m 15,4 km/h (3 Bft)
19.05.2013 11:08 15,6 C 20,7 C 79 % 1007,7 hPa 0,0 l/m 2 min 0 min 3,1 UV-I 701 W/m 20,6 km/h (4 Bft)
19.05.2013 11:10 15,6 C 21,2 C 79 % 1007,8 hPa 0,0 l/m 2 min 0 min 3,2 UV-I 717 W/m 18,0 km/h (3 Bft)
19.05.2013 11:12 15,6 C 21,8 C 78 % 1007,7 hPa 0,0 l/m 2 min 0 min 3,2 UV-I 722 W/m 15,4 km/h (3 Bft)
19.05.2013 11:14 15,6 C 21,8 C 78 % 1007,6 hPa 0,0 l/m 2 min 0 min 3,3 UV-I 724 W/m 12,9 km/h (3 Bft)
19.05.2013 11:16 15,7 C 21,8 C 79 % 1007,6 hPa 0,0 l/m 2 min 0 min 3,3 UV-I 733 W/m 10,3 km/h (2 Bft)
19.05.2013 11:18 15,8 C 21,8 C 78 % 1007,7 hPa 0,0 l/m 2 min 0 min 3,4 UV-I 729 W/m 20,6 km/h (4 Bft)
19.05.2013 11:20 15,8 C 21,8 C 78 % 1007,5 hPa 0,0 l/m 2 min 0 min 3,4 UV-I 733 W/m 10,3 km/h (2 Bft)
19.05.2013 11:22 15,9 C 21,8 C 78 % 1007,5 hPa 0,0 l/m 2 min 0 min 3,4 UV-I 737 W/m 15,4 km/h (3 Bft)
19.05.2013 11:24 16,0 C 21,8 C 78 % 1007,5 hPa 0,0 l/m 2 min 0 min 3,5 UV-I 745 W/m 12,9 km/h (3 Bft)
19.05.2013 11:26 16,1 C 21,8 C 77 % 1007,3 hPa 0,0 l/m 2 min 0 min 3,5 UV-I 745 W/m 18,0 km/h (3 Bft)
19.05.2013 11:28 16,2 C 21,2 C 78 % 1007,3 hPa 0,0 l/m 2 min 0 min 3,5 UV-I 745 W/m 15,4 km/h (3 Bft)
19.05.2013 11:30 16,3 C 20,1 C 78 % 1007,2 hPa 0,0 l/m 2 min 0 min 3,6 UV-I 742 W/m 25,7 km/h (4 Bft)
19.05.2013 11:32 16,3 C 19,0 C 76 % 1007,2 hPa 0,0 l/m 2 min 0 min 3,6 UV-I 742 W/m 23,2 km/h (4 Bft)
19.05.2013 11:34 16,3 C 19,0 C 77 % 1007,2 hPa 0,0 l/m 2 min 0 min 3,6 UV-I 740 W/m 23,2 km/h (4 Bft)
19.05.2013 11:36 16,4 C 19,0 C 77 % 1007,3 hPa 0,0 l/m 2 min 0 min 3,7 UV-I 749 W/m 20,6 km/h (4 Bft)
19.05.2013 11:38 16,4 C 18,4 C 77 % 1007,2 hPa 0,0 l/m 2 min 0 min 3,7 UV-I 756 W/m 23,2 km/h (4 Bft)
19.05.2013 11:40 16,5 C 18,4 C 77 % 1007,3 hPa 0,0 l/m 2 min 0 min 3,7 UV-I 768 W/m 18,0 km/h (3 Bft)
19.05.2013 11:42 16,6 C 19,0 C 77 % 1007,3 hPa 0,0 l/m 2 min 0 min 3,8 UV-I 754 W/m 18,0 km/h (3 Bft)
19.05.2013 11:44 16,6 C 19,6 C 77 % 1007,5 hPa 0,0 l/m 2 min 0 min 3,8 UV-I 759 W/m 15,4 km/h (3 Bft)
19.05.2013 11:46 16,7 C 20,1 C 76 % 1007,4 hPa 0,0 l/m 2 min 0 min 3,8 UV-I 758 W/m 15,4 km/h (3 Bft)
19.05.2013 11:48 16,7 C 20,7 C 76 % 1007,4 hPa 0,0 l/m 2 min 0 min 3,8 UV-I 756 W/m 18,0 km/h (3 Bft)
19.05.2013 11:50 16,8 C 21,8 C 76 % 1007,4 hPa 0,0 l/m 2 min 0 min 3,9 UV-I 761 W/m 20,6 km/h (4 Bft)
19.05.2013 11:52 16,8 C 22,3 C 76 % 1007,4 hPa 0,0 l/m 2 min 0 min 3,9 UV-I 766 W/m 15,4 km/h (3 Bft)
19.05.2013 11:54 16,9 C 22,3 C 75 % 1007,4 hPa 0,0 l/m 2 min 0 min 4,0 UV-I 777 W/m 18,0 km/h (3 Bft)
19.05.2013 11:56 16,8 C 22,3 C 74 % 1007,5 hPa 0,0 l/m 2 min 0 min 4,1 UV-I 791 W/m 18,0 km/h (3 Bft)
19.05.2013 11:58 16,7 C 21,8 C 74 % 1007,5 hPa 0,0 l/m 2 min 0 min 4,1 UV-I 780 W/m 20,6 km/h (4 Bft)
19.05.2013 12:00 16,9 C 22,3 C 74 % 1007,5 hPa 0,0 l/m 2 min 0 min 4,1 UV-I 784 W/m 18,0 km/h (3 Bft)
19.05.2013 12:02 17,1 C 23,4 C 75 % 1007,5 hPa 0,0 l/m 2 min 0 min 4,1 UV-I 793 W/m 12,9 km/h (3 Bft)
19.05.2013 12:04 17,2 C 24,0 C 74 % 1007,5 hPa 0,0 l/m 2 min 0 min 4,2 UV-I 798 W/m 15,4 km/h (3 Bft)
19.05.2013 12:06 17,2 C 23,4 C 73 % 1007,5 hPa 0,0 l/m 2 min 0 min 4,2 UV-I 798 W/m 18,0 km/h (3 Bft)
19.05.2013 12:08 17,2 C 22,9 C 71 % 1007,5 hPa 0,0 l/m 2 min 0 min 4,2 UV-I 793 W/m 20,6 km/h (4 Bft)
19.05.2013 12:10 17,1 C 22,9 C 70 % 1007,6 hPa 0,0 l/m 2 min 0 min 4,2 UV-I 800 W/m 15,4 km/h (3 Bft)
19.05.2013 12:12 17,2 C 24,0 C 72 % 1007,5 hPa 0,0 l/m 2 min 0 min 4,2 UV-I 795 W/m 15,4 km/h (3 Bft)
19.05.2013 12:14 17,1 C 23,4 C 72 % 1007,5 hPa 0,0 l/m 2 min 0 min 4,2 UV-I 793 W/m 18,0 km/h (3 Bft)
19.05.2013 12:16 17,2 C 24,0 C 74 % 1007,6 hPa 0,0 l/m 2 min 0 min 4,3 UV-I 800 W/m 18,0 km/h (3 Bft)
19.05.2013 12:18 17,4 C 24,6 C 73 % 1007,5 hPa 0,0 l/m 2 min 0 min 4,4 UV-I 809 W/m 10,3 km/h (2 Bft)
19.05.2013 12:20 17,6 C 24,6 C 72 % 1007,5 hPa 0,0 l/m 2 min 0 min 4,4 UV-I 810 W/m 12,9 km/h (3 Bft)
19.05.2013 12:22 17,8 C 25,1 C 72 % 1007,4 hPa 0,0 l/m 2 min 0 min 4,4 UV-I 809 W/m 7,7 km/h (2 Bft)
19.05.2013 12:24 17,8 C 25,7 C 69 % 1007,5 hPa 0,0 l/m 2 min 0 min 4,5 UV-I 816 W/m 20,6 km/h (4 Bft)
19.05.2013 12:26 17,7 C 24,6 C 71 % 1007,4 hPa 0,0 l/m 2 min 0 min 4,5 UV-I 805 W/m 18,0 km/h (3 Bft)
19.05.2013 12:28 17,7 C 24,0 C 71 % 1007,5 hPa 0,0 l/m 2 min 0 min 4,4 UV-I 805 W/m 20,6 km/h (4 Bft)
19.05.2013 12:30 17,7 C 23,4 C 70 % 1007,3 hPa 0,0 l/m 2 min 0 min 4,5 UV-I 823 W/m 18,0 km/h (3 Bft)
19.05.2013 12:32 17,8 C 24,6 C 71 % 1007,5 hPa 0,0 l/m 2 min 0 min 4,5 UV-I 823 W/m 12,9 km/h (3 Bft)
19.05.2013 12:34 17,8 C 24,0 C 69 % 1007,4 hPa 0,0 l/m 2 min 0 min 4,6 UV-I 821 W/m 15,4 km/h (3 Bft)
19.05.2013 12:36 17,7 C 23,4 C 69 % 1007,5 hPa 0,0 l/m 2 min 0 min 4,6 UV-I 823 W/m 18,0 km/h (3 Bft)
19.05.2013 12:38 17,8 C 24,0 C 69 % 1007,4 hPa 0,0 l/m 2 min 0 min 4,5 UV-I 824 W/m 15,4 km/h (3 Bft)
19.05.2013 12:40 17,9 C 23,4 C 68 % 1007,5 hPa 0,0 l/m 2 min 0 min 4,6 UV-I 826 W/m 15,4 km/h (3 Bft)
19.05.2013 12:42 17,9 C 24,0 C 69 % 1007,5 hPa 0,0 l/m 2 min 0 min 4,6 UV-I 823 W/m 12,9 km/h (3 Bft)
19.05.2013 12:44 17,9 C 24,0 C 69 % 1007,4 hPa 0,0 l/m 2 min 0 min 4,5 UV-I 823 W/m 18,0 km/h (3 Bft)
19.05.2013 12:46 17,9 C 24,0 C 69 % 1007,3 hPa 0,0 l/m 2 min 0 min 4,5 UV-I 831 W/m 18,0 km/h (3 Bft)
19.05.2013 12:48 18,2 C 24,6 C 70 % 1007,4 hPa 0,0 l/m 2 min 0 min 4,2 UV-I 830 W/m 23,2 km/h (4 Bft)
19.05.2013 12:50 18,2 C 25,1 C 70 % 1007,4 hPa 0,0 l/m 2 min 0 min 3,8 UV-I 819 W/m 15,4 km/h (3 Bft)
19.05.2013 12:52 18,1 C 24,0 C 70 % 1007,3 hPa 0,0 l/m 2 min 0 min 3,3 UV-I 824 W/m 12,9 km/h (3 Bft)
19.05.2013 12:54 18,2 C 24,6 C 72 % 1007,4 hPa 0,0 l/m 2 min 0 min 3,0 UV-I 851 W/m 15,4 km/h (3 Bft)
19.05.2013 12:56 18,2 C 23,4 C 71 % 1007,3 hPa 0,0 l/m 2 min 0 min 2,6 UV-I 817 W/m 15,4 km/h (3 Bft)
19.05.2013 12:58 18,3 C 23,4 C 72 % 1007,4 hPa 0,0 l/m 2 min 0 min 2,3 UV-I 833 W/m 18,0 km/h (3 Bft)
19.05.2013 13:00 18,2 C 22,9 C 69 % 1007,4 hPa 0,0 l/m 2 min 0 min 2,2 UV-I 838 W/m 15,4 km/h (3 Bft)
19.05.2013 13:02 18,1 C 22,9 C 70 % 1007,4 hPa 0,0 l/m 2 min 0 min 2,1 UV-I 837 W/m 23,2 km/h (4 Bft)
19.05.2013 13:04 18,2 C 22,9 C 71 % 1007,4 hPa 0,0 l/m 2 min 0 min 2,1 UV-I 819 W/m 20,6 km/h (4 Bft)
19.05.2013 13:06 18,3 C 23,4 C 70 % 1007,4 hPa 0,0 l/m 2 min 0 min 2,1 UV-I 835 W/m 18,0 km/h (3 Bft)
19.05.2013 13:08 18,3 C 24,0 C 71 % 1007,4 hPa 0,0 l/m 2 min 0 min 2,1 UV-I 831 W/m 15,4 km/h (3 Bft)
19.05.2013 13:10 18,3 C 24,6 C 70 % 1007,4 hPa 0,0 l/m 2 min 0 min 2,1 UV-I 833 W/m 18,0 km/h (3 Bft)
19.05.2013 13:12 18,6 C 24,6 C 71 % 1007,4 hPa 0,0 l/m 2 min 0 min 2,1 UV-I 833 W/m 18,0 km/h (3 Bft)
19.05.2013 13:14 18,6 C 24,6 C 68 % 1007,5 hPa 0,0 l/m 2 min 0 min 2,1 UV-I 840 W/m 20,6 km/h (4 Bft)
19.05.2013 13:16 18,6 C 24,6 C 67 % 1007,5 hPa 0,0 l/m 2 min 0 min 2,1 UV-I 831 W/m 12,9 km/h (3 Bft)
19.05.2013 13:18 18,7 C 25,1 C 68 % 1007,5 hPa 0,0 l/m 2 min 0 min 2,1 UV-I 826 W/m 12,9 km/h (3 Bft)
19.05.2013 13:20 18,7 C 24,0 C 67 % 1007,5 hPa 0,0 l/m 2 min 0 min 2,2 UV-I 812 W/m 20,6 km/h (4 Bft)
19.05.2013 13:22 18,4 C 23,4 C 68 % 1007,5 hPa 0,0 l/m 2 min 0 min 2,2 UV-I 824 W/m 23,2 km/h (4 Bft)
19.05.2013 13:24 18,3 C 23,4 C 70 % 1007,5 hPa 0,0 l/m 2 min 0 min 2,2 UV-I 823 W/m 20,6 km/h (4 Bft)
19.05.2013 13:26 18,3 C 24,0 C 70 % 1007,6 hPa 0,0 l/m 2 min 0 min 2,2 UV-I 856 W/m 15,4 km/h (3 Bft)
19.05.2013 13:28 18,4 C 24,0 C 71 % 1007,5 hPa 0,0 l/m 2 min 0 min 2,2 UV-I 844 W/m 18,0 km/h (3 Bft)
19.05.2013 13:30 18,7 C 24,6 C 70 % 1007,5 hPa 0,0 l/m 2 min 0 min 2,2 UV-I 828 W/m 15,4 km/h (3 Bft)
19.05.2013 13:32 18,8 C 24,6 C 68 % 1007,4 hPa 0,0 l/m 2 min 0 min 2,2 UV-I 826 W/m 12,9 km/h (3 Bft)
19.05.2013 13:34 18,9 C 24,0 C 70 % 1007,4 hPa 0,0 l/m 2 min 0 min 2,3 UV-I 826 W/m 23,2 km/h (4 Bft)
19.05.2013 13:36 18,8 C 22,9 C 69 % 1007,5 hPa 0,0 l/m 2 min 0 min 2,4 UV-I 791 W/m 25,7 km/h (4 Bft)
19.05.2013 13:38 18,8 C 22,3 C 69 % 1007,5 hPa 0,0 l/m 2 min 0 min 2,7 UV-I 814 W/m 15,4 km/h (3 Bft)
19.05.2013 13:40 18,9 C 21,2 C 69 % 1007,5 hPa 0,0 l/m 2 min 0 min 3,1 UV-I 833 W/m 20,6 km/h (4 Bft)
19.05.2013 13:42 18,8 C 20,1 C 69 % 1007,4 hPa 0,0 l/m 2 min 0 min 3,5 UV-I 819 W/m 23,2 km/h (4 Bft)
19.05.2013 13:44 18,9 C 20,7 C 71 % 1007,5 hPa 0,0 l/m 2 min 0 min 3,9 UV-I 807 W/m 18,0 km/h (3 Bft)
19.05.2013 13:46 19,1 C 20,1 C 69 % 1007,5 hPa 0,0 l/m 2 min 0 min 4,3 UV-I 844 W/m 12,9 km/h (3 Bft)
19.05.2013 13:48 19,0 C 20,1 C 68 % 1007,5 hPa 0,0 l/m 2 min 0 min 4,5 UV-I 842 W/m 23,2 km/h (4 Bft)
19.05.2013 13:50 18,9 C 19,6 C 69 % 1007,4 hPa 0,0 l/m 2 min 0 min 4,6 UV-I 819 W/m 18,0 km/h (3 Bft)
19.05.2013 13:52 18,9 C 19,6 C 69 % 1007,4 hPa 0,0 l/m 2 min 0 min 4,6 UV-I 826 W/m 15,4 km/h (3 Bft)
19.05.2013 13:54 19,0 C 20,1 C 70 % 1007,3 hPa 0,0 l/m 2 min 0 min 4,6 UV-I 844 W/m 20,6 km/h (4 Bft)
19.05.2013 13:56 19,1 C 20,1 C 69 % 1007,3 hPa 0,0 l/m 2 min 0 min 4,6 UV-I 833 W/m 20,6 km/h (4 Bft)
19.05.2013 13:58 19,1 C 19,6 C 68 % 1007,4 hPa 0,0 l/m 2 min 0 min 4,6 UV-I 821 W/m 23,2 km/h (4 Bft)
19.05.2013 14:00 18,9 C 19,6 C 69 % 1007,3 hPa 0,0 l/m 2 min 0 min 4,6 UV-I 823 W/m 20,6 km/h (4 Bft)
19.05.2013 14:02 18,9 C 19,6 C 70 % 1007,3 hPa 0,0 l/m 2 min 0 min 4,6 UV-I 837 W/m 30,9 km/h (5 Bft)
19.05.2013 14:04 19,0 C 19,6 C 68 % 1007,3 hPa 0,0 l/m 2 min 0 min 4,5 UV-I 798 W/m 23,2 km/h (4 Bft)
19.05.2013 14:06 19,0 C 19,6 C 69 % 1007,3 hPa 0,0 l/m 2 min 0 min 4,6 UV-I 828 W/m 12,9 km/h (3 Bft)
19.05.2013 14:08 19,1 C 19,6 C 70 % 1007,3 hPa 0,0 l/m 2 min 0 min 4,6 UV-I 833 W/m 20,6 km/h (4 Bft)
19.05.2013 14:10 19,1 C 19,6 C 69 % 1007,3 hPa 0,0 l/m 2 min 0 min 4,5 UV-I 821 W/m 12,9 km/h (3 Bft)
19.05.2013 14:12 19,1 C 20,1 C 68 % 1007,3 hPa 0,0 l/m 2 min 0 min 4,5 UV-I 824 W/m 20,6 km/h (4 Bft)
19.05.2013 14:14 19,3 C 20,1 C 69 % 1007,3 hPa 0,0 l/m 2 min 0 min 4,4 UV-I 809 W/m 28,3 km/h (4 Bft)
19.05.2013 14:16 19,2 C 20,1 C 68 % 1007,3 hPa 0,0 l/m 2 min 0 min 4,4 UV-I 796 W/m 23,2 km/h (4 Bft)
19.05.2013 14:18 19,2 C 20,1 C 69 % 1007,3 hPa 0,0 l/m 2 min 0 min 4,5 UV-I 828 W/m 15,4 km/h (3 Bft)
19.05.2013 14:20 19,2 C 20,1 C 68 % 1007,2 hPa 0,0 l/m 2 min 0 min 4,4 UV-I 821 W/m 15,4 km/h (3 Bft)
19.05.2013 14:22 19,2 C 20,1 C 69 % 1007,2 hPa 0,0 l/m 2 min 0 min 4,5 UV-I 824 W/m 12,9 km/h (3 Bft)
19.05.2013 14:24 19,3 C 20,1 C 68 % 1007,1 hPa 0,0 l/m 2 min 0 min 4,5 UV-I 802 W/m 20,6 km/h (4 Bft)
19.05.2013 14:26 19,3 C 19,6 C 68 % 1007,1 hPa 0,0 l/m 2 min 0 min 4,4 UV-I 817 W/m 20,6 km/h (4 Bft)
19.05.2013 14:28 19,3 C 20,1 C 69 % 1006,9 hPa 0,0 l/m 2 min 0 min 4,3 UV-I 796 W/m 20,6 km/h (4 Bft)
19.05.2013 14:30 19,4 C 20,1 C 68 % 1007,0 hPa 0,0 l/m 2 min 0 min 4,4 UV-I 817 W/m 18,0 km/h (3 Bft)
19.05.2013 14:32 19,2 C 20,1 C 67 % 1006,9 hPa 0,0 l/m 2 min 0 min 4,4 UV-I 809 W/m 12,9 km/h (3 Bft)
19.05.2013 14:34 19,1 C 19,6 C 67 % 1007,0 hPa 0,0 l/m 2 min 0 min 4,4 UV-I 817 W/m 25,7 km/h (4 Bft)
19.05.2013 14:36 19,1 C 19,6 C 69 % 1006,9 hPa 0,0 l/m 2 min 0 min 4,4 UV-I 800 W/m 25,7 km/h (4 Bft)
19.05.2013 14:38 19,1 C 19,6 C 67 % 1006,8 hPa 0,0 l/m 2 min 0 min 4,4 UV-I 803 W/m 20,6 km/h (4 Bft)
19.05.2013 14:40 19,2 C 20,1 C 68 % 1006,8 hPa 0,0 l/m 2 min 0 min 4,4 UV-I 816 W/m 20,6 km/h (4 Bft)
19.05.2013 14:42 19,2 C 19,6 C 69 % 1006,7 hPa 0,0 l/m 2 min 0 min 4,4 UV-I 791 W/m 28,3 km/h (4 Bft)
19.05.2013 14:44 19,2 C 19,6 C 68 % 1006,8 hPa 0,0 l/m 2 min 0 min 4,3 UV-I 805 W/m 23,2 km/h (4 Bft)
19.05.2013 14:46 19,3 C 19,6 C 68 % 1006,8 hPa 0,0 l/m 2 min 0 min 4,3 UV-I 810 W/m 20,6 km/h (4 Bft)
19.05.2013 14:48 19,3 C 19,6 C 67 % 1006,8 hPa 0,0 l/m 2 min 0 min 4,3 UV-I 798 W/m 20,6 km/h (4 Bft)
19.05.2013 14:50 19,2 C 19,6 C 67 % 1006,8 hPa 0,0 l/m 2 min 0 min 4,2 UV-I 791 W/m 30,9 km/h (5 Bft)
19.05.2013 14:52 19,1 C 19,6 C 68 % 1006,8 hPa 0,0 l/m 2 min 0 min 4,2 UV-I 789 W/m 25,7 km/h (4 Bft)
19.05.2013 14:54 19,2 C 19,6 C 68 % 1006,8 hPa 0,0 l/m 2 min 0 min 4,2 UV-I 786 W/m 18,0 km/h (3 Bft)
19.05.2013 14:56 19,3 C 19,6 C 69 % 1006,8 hPa 0,0 l/m 2 min 0 min 4,2 UV-I 788 W/m 18,0 km/h (3 Bft)
19.05.2013 14:58 19,4 C 19,6 C 68 % 1006,7 hPa 0,0 l/m 2 min 0 min 4,0 UV-I 761 W/m 25,7 km/h (4 Bft)
19.05.2013 15:00 19,3 C 19,6 C 67 % 1006,8 hPa 0,0 l/m 2 min 0 min 4,1 UV-I 780 W/m 25,7 km/h (4 Bft)
19.05.2013 15:02 19,4 C 20,1 C 68 % 1006,8 hPa 0,0 l/m 2 min 0 min 4,1 UV-I 786 W/m 20,6 km/h (4 Bft)
19.05.2013 15:04 19,3 C 19,6 C 66 % 1006,8 hPa 0,0 l/m 2 min 0 min 4,1 UV-I 786 W/m 25,7 km/h (4 Bft)
19.05.2013 15:06 19,3 C 19,6 C 67 % 1006,8 hPa 0,0 l/m 2 min 0 min 4,1 UV-I 786 W/m 23,2 km/h (4 Bft)
19.05.2013 15:08 19,4 C 19,6 C 67 % 1006,8 hPa 0,0 l/m 2 min 0 min 4,0 UV-I 775 W/m 15,4 km/h (3 Bft)
19.05.2013 15:10 19,6 C 20,1 C 68 % 1006,8 hPa 0,0 l/m 2 min 0 min 4,0 UV-I 761 W/m 15,4 km/h (3 Bft)
19.05.2013 15:12 19,6 C 20,1 C 68 % 1006,8 hPa 0,0 l/m 2 min 0 min 3,9 UV-I 761 W/m 15,4 km/h (3 Bft)
19.05.2013 15:14 19,6 C 19,6 C 67 % 1006,8 hPa 0,0 l/m 2 min 0 min 3,8 UV-I 751 W/m 25,7 km/h (4 Bft)
19.05.2013 15:16 19,6 C 19,6 C 67 % 1006,8 hPa 0,0 l/m 2 min 0 min 3,9 UV-I 772 W/m 18,0 km/h (3 Bft)
19.05.2013 15:18 19,6 C 20,1 C 67 % 1006,8 hPa 0,0 l/m 2 min 0 min 3,8 UV-I 754 W/m 15,4 km/h (3 Bft)
19.05.2013 15:20 19,6 C 19,6 C 67 % 1006,8 hPa 0,0 l/m 2 min 0 min 3,8 UV-I 740 W/m 20,6 km/h (4 Bft)
19.05.2013 15:22 19,6 C 19,6 C 67 % 1006,8 hPa 0,0 l/m 2 min 0 min 3,7 UV-I 724 W/m 18,0 km/h (3 Bft)
19.05.2013 15:24 19,7 C 19,6 C 67 % 1006,8 hPa 0,0 l/m 2 min 0 min 3,6 UV-I 737 W/m 15,4 km/h (3 Bft)
19.05.2013 15:26 19,7 C 19,6 C 66 % 1006,8 hPa 0,0 l/m 2 min 0 min 3,6 UV-I 731 W/m 18,0 km/h (3 Bft)
19.05.2013 15:28 19,7 C 19,6 C 66 % 1006,8 hPa 0,0 l/m 2 min 0 min 3,6 UV-I 729 W/m 18,0 km/h (3 Bft)
19.05.2013 15:30 19,8 C 20,1 C 68 % 1006,8 hPa 0,0 l/m 2 min 0 min 3,7 UV-I 742 W/m 15,4 km/h (3 Bft)
19.05.2013 15:32 19,8 C 20,1 C 66 % 1006,8 hPa 0,0 l/m 2 min 0 min 3,6 UV-I 745 W/m 28,3 km/h (4 Bft)
19.05.2013 15:34 19,7 C 19,6 C 65 % 1006,8 hPa 0,0 l/m 2 min 0 min 3,7 UV-I 749 W/m 33,5 km/h (5 Bft)
19.05.2013 15:36 19,7 C 19,6 C 66 % 1006,8 hPa 0,0 l/m 2 min 0 min 3,6 UV-I 749 W/m 20,6 km/h (4 Bft)
19.05.2013 15:38 19,7 C 20,1 C 66 % 1006,8 hPa 0,0 l/m 2 min 0 min 3,5 UV-I 733 W/m 18,0 km/h (3 Bft)
19.05.2013 15:40 19,8 C 20,1 C 66 % 1006,8 hPa 0,0 l/m 2 min 0 min 3,5 UV-I 726 W/m 20,6 km/h (4 Bft)
19.05.2013 15:42 19,8 C 20,1 C 65 % 1006,8 hPa 0,0 l/m 2 min 0 min 3,4 UV-I 721 W/m 25,7 km/h (4 Bft)
19.05.2013 15:44 19,7 C 20,1 C 66 % 1006,7 hPa 0,0 l/m 2 min 0 min 3,4 UV-I 724 W/m 15,4 km/h (3 Bft)
19.05.2013 15:46 19,8 C 20,1 C 66 % 1006,7 hPa 0,0 l/m 2 min 0 min 3,3 UV-I 703 W/m 10,3 km/h (2 Bft)
19.05.2013 15:48 19,8 C 20,1 C 66 % 1006,7 hPa 0,0 l/m 2 min 0 min 3,3 UV-I 707 W/m 20,6 km/h (4 Bft)
19.05.2013 15:50 19,8 C 20,1 C 65 % 1006,7 hPa 0,0 l/m 2 min 0 min 3,2 UV-I 691 W/m 20,6 km/h (4 Bft)
19.05.2013 15:52 19,8 C 20,7 C 66 % 1006,6 hPa 0,0 l/m 2 min 0 min 3,1 UV-I 686 W/m 10,3 km/h (2 Bft)
19.05.2013 15:54 20,1 C 21,8 C 67 % 1006,6 hPa 0,0 l/m 2 min 0 min 3,0 UV-I 680 W/m 15,4 km/h (3 Bft)
19.05.2013 15:56 20,1 C 21,8 C 65 % 1006,6 hPa 0,0 l/m 2 min 0 min 3,1 UV-I 666 W/m 15,4 km/h (3 Bft)
19.05.2013 15:58 19,9 C 21,8 C 64 % 1006,6 hPa 0,0 l/m 2 min 0 min 3,1 UV-I 689 W/m 18,0 km/h (3 Bft)
19.05.2013 16:00 19,8 C 21,8 C 65 % 1006,5 hPa 0,0 l/m 2 min 0 min 3,1 UV-I 687 W/m 15,4 km/h (3 Bft)
19.05.2013 16:02 19,8 C 21,8 C 66 % 1006,5 hPa 0,0 l/m 2 min 0 min 3,0 UV-I 684 W/m 18,0 km/h (3 Bft)
19.05.2013 16:04 19,8 C 21,2 C 65 % 1006,5 hPa 0,0 l/m 2 min 0 min 3,0 UV-I 682 W/m 20,6 km/h (4 Bft)
19.05.2013 16:06 19,7 C 20,7 C 65 % 1006,6 hPa 0,0 l/m 2 min 0 min 2,9 UV-I 682 W/m 28,3 km/h (4 Bft)
19.05.2013 16:08 19,7 C 20,1 C 67 % 1006,6 hPa 0,0 l/m 2 min 0 min 2,9 UV-I 673 W/m 15,4 km/h (3 Bft)
19.05.2013 16:10 19,7 C 20,1 C 66 % 1006,5 hPa 0,0 l/m 2 min 0 min 2,8 UV-I 663 W/m 23,2 km/h (4 Bft)
19.05.2013 16:12 19,7 C 20,1 C 66 % 1006,6 hPa 0,0 l/m 2 min 0 min 2,8 UV-I 661 W/m 23,2 km/h (4 Bft)
19.05.2013 16:14 19,8 C 20,1 C 66 % 1006,5 hPa 0,0 l/m 2 min 0 min 2,8 UV-I 670 W/m 23,2 km/h (4 Bft)
19.05.2013 16:16 19,9 C 20,1 C 66 % 1006,5 hPa 0,0 l/m 2 min 0 min 2,8 UV-I 677 W/m 23,2 km/h (4 Bft)
19.05.2013 16:18 20,0 C 20,1 C 65 % 1006,5 hPa 0,0 l/m 2 min 0 min 2,6 UV-I 636 W/m 18,0 km/h (3 Bft)
19.05.2013 16:20 19,9 C 20,1 C 64 % 1006,5 hPa 0,0 l/m 2 min 0 min 2,6 UV-I 631 W/m 15,4 km/h (3 Bft)
19.05.2013 16:22 20,0 C 20,1 C 66 % 1006,4 hPa 0,0 l/m 2 min 0 min 2,6 UV-I 645 W/m 12,9 km/h (3 Bft)
19.05.2013 16:24 20,1 C 20,1 C 65 % 1006,4 hPa 0,0 l/m 2 min 0 min 2,5 UV-I 621 W/m 20,6 km/h (4 Bft)
19.05.2013 16:26 19,9 C 19,6 C 65 % 1006,4 hPa 0,0 l/m 2 min 0 min 2,5 UV-I 631 W/m 20,6 km/h (4 Bft)
19.05.2013 16:28 19,9 C 19,6 C 66 % 1006,4 hPa 0,0 l/m 2 min 0 min 2,5 UV-I 628 W/m 20,6 km/h (4 Bft)
19.05.2013 16:30 19,8 C 19,6 C 66 % 1006,4 hPa 0,0 l/m 2 min 0 min 2,4 UV-I 635 W/m 20,6 km/h (4 Bft)
19.05.2013 16:32 19,7 C 19,6 C 66 % 1006,4 hPa 0,0 l/m 2 min 0 min 2,4 UV-I 617 W/m 15,4 km/h (3 Bft)
19.05.2013 16:34 19,8 C 20,1 C 66 % 1006,4 hPa 0,0 l/m 2 min 0 min 2,3 UV-I 615 W/m 12,9 km/h (3 Bft)
19.05.2013 16:36 19,8 C 19,6 C 65 % 1006,4 hPa 0,0 l/m 2 min 0 min 2,2 UV-I 603 W/m 23,2 km/h (4 Bft)
19.05.2013 16:38 19,6 C 19,6 C 65 % 1006,5 hPa 0,0 l/m 2 min 0 min 2,2 UV-I 599 W/m 20,6 km/h (4 Bft)
19.05.2013 16:40 19,6 C 19,6 C 66 % 1006,4 hPa 0,0 l/m 2 min 0 min 2,2 UV-I 603 W/m 23,2 km/h (4 Bft)
19.05.2013 16:42 19,6 C 19,6 C 66 % 1006,5 hPa 0,0 l/m 2 min 0 min 2,2 UV-I 626 W/m 20,6 km/h (4 Bft)
19.05.2013 16:44 19,7 C 19,6 C 66 % 1006,4 hPa 0,0 l/m 2 min 0 min 2,1 UV-I 584 W/m 12,9 km/h (3 Bft)
19.05.2013 16:46 19,8 C 20,1 C 66 % 1006,4 hPa 0,0 l/m 2 min 0 min 2,2 UV-I 617 W/m 20,6 km/h (4 Bft)
19.05.2013 16:48 19,9 C 20,1 C 66 % 1006,4 hPa 0,0 l/m 2 min 0 min 2,0 UV-I 578 W/m 12,9 km/h (3 Bft)
19.05.2013 16:50 19,9 C 19,6 C 65 % 1006,4 hPa 0,0 l/m 2 min 0 min 2,0 UV-I 592 W/m 20,6 km/h (4 Bft)
19.05.2013 16:52 19,8 C 19,6 C 64 % 1006,3 hPa 0,0 l/m 2 min 0 min 2,0 UV-I 585 W/m 20,6 km/h (4 Bft)
19.05.2013 16:54 19,8 C 19,6 C 65 % 1006,2 hPa 0,0 l/m 2 min 0 min 2,0 UV-I 575 W/m 20,6 km/h (4 Bft)
19.05.2013 16:56 19,8 C 19,6 C 65 % 1006,2 hPa 0,0 l/m 2 min 0 min 1,9 UV-I 563 W/m 20,6 km/h (4 Bft)
19.05.2013 16:58 19,8 C 19,6 C 65 % 1006,2 hPa 0,0 l/m 2 min 0 min 1,9 UV-I 577 W/m 20,6 km/h (4 Bft)
19.05.2013 17:00 19,7 C 19,6 C 66 % 1006,2 hPa 0,0 l/m 2 min 0 min 1,2 UV-I 547 W/m 12,9 km/h (3 Bft)
19.05.2013 17:02 19,8 C 19,6 C 67 % 1006,2 hPa 0,0 l/m 2 min 0 min 1,7 UV-I 531 W/m 28,3 km/h (4 Bft)
19.05.2013 17:04 19,7 C 19,6 C 67 % 1006,1 hPa 0,0 l/m 2 min 0 min 1,7 UV-I 513 W/m 18,0 km/h (3 Bft)
19.05.2013 17:06 19,7 C 19,0 C 66 % 1006,1 hPa 0,0 l/m 2 min 0 min 1,8 UV-I 547 W/m 25,7 km/h (4 Bft)
19.05.2013 17:08 19,6 C 19,0 C 65 % 1006,1 hPa 0,0 l/m 2 min 0 min 1,6 UV-I 522 W/m 18,0 km/h (3 Bft)
19.05.2013 17:10 19,6 C 19,0 C 67 % 1006,2 hPa 0,0 l/m 2 min 0 min 1,6 UV-I 515 W/m 12,9 km/h (3 Bft)
19.05.2013 17:12 19,7 C 19,0 C 65 % 1006,2 hPa 0,0 l/m 2 min 0 min 1,5 UV-I 496 W/m 18,0 km/h (3 Bft)
19.05.2013 17:14 19,7 C 19,0 C 66 % 1006,2 hPa 0,0 l/m 2 min 0 min 1,5 UV-I 517 W/m 15,4 km/h (3 Bft)
19.05.2013 17:16 19,7 C 19,0 C 66 % 1006,2 hPa 0,0 l/m 2 min 0 min 1,5 UV-I 526 W/m 15,4 km/h (3 Bft)
19.05.2013 17:18 19,8 C 19,0 C 65 % 1006,2 hPa 0,0 l/m 2 min 0 min 1,5 UV-I 497 W/m 20,6 km/h (4 Bft)
19.05.2013 17:20 19,7 C 19,0 C 66 % 1006,1 hPa 0,0 l/m 2 min 0 min 1,4 UV-I 497 W/m 15,4 km/h (3 Bft)
19.05.2013 17:22 19,7 C 19,0 C 67 % 1006,2 hPa 0,0 l/m 2 min 0 min 1,4 UV-I 504 W/m 15,4 km/h (3 Bft)
19.05.2013 17:24 19,6 C 19,0 C 66 % 1006,2 hPa 0,0 l/m 2 min 0 min 1,4 UV-I 492 W/m 18,0 km/h (3 Bft)
19.05.2013 17:26 19,6 C 19,0 C 66 % 1006,1 hPa 0,0 l/m 2 min 0 min 1,3 UV-I 478 W/m 25,7 km/h (4 Bft)
19.05.2013 17:28 19,5 C 18,4 C 66 % 1006,1 hPa 0,0 l/m 2 min 0 min 1,3 UV-I 461 W/m 28,3 km/h (4 Bft)
19.05.2013 17:30 19,3 C 18,4 C 66 % 1006,2 hPa 0,0 l/m 2 min 0 min 1,3 UV-I 462 W/m 20,6 km/h (4 Bft)
19.05.2013 17:32 19,3 C 18,4 C 66 % 1006,2 hPa 0,0 l/m 2 min 0 min 1,2 UV-I 475 W/m 20,6 km/h (4 Bft)
19.05.2013 17:34 19,2 C 18,4 C 68 % 1006,2 hPa 0,0 l/m 2 min 0 min 1,2 UV-I 464 W/m 20,6 km/h (4 Bft)
19.05.2013 17:36 19,3 C 18,4 C 68 % 1006,2 hPa 0,0 l/m 2 min 0 min 1,2 UV-I 462 W/m 25,7 km/h (4 Bft)
19.05.2013 17:38 19,3 C 18,4 C 67 % 1006,2 hPa 0,0 l/m 2 min 0 min 1,1 UV-I 457 W/m 23,2 km/h (4 Bft)
19.05.2013 17:40 19,2 C 18,4 C 67 % 1006,1 hPa 0,0 l/m 2 min 0 min 1,1 UV-I 448 W/m 23,2 km/h (4 Bft)
19.05.2013 17:42 19,1 C 18,4 C 67 % 1006,2 hPa 0,0 l/m 2 min 0 min 1,0 UV-I 424 W/m 15,4 km/h (3 Bft)
19.05.2013 17:44 19,2 C 18,4 C 68 % 1006,2 hPa 0,0 l/m 2 min 0 min 1,0 UV-I 432 W/m 23,2 km/h (4 Bft)
19.05.2013 17:46 19,2 C 18,4 C 68 % 1006,2 hPa 0,0 l/m 2 min 0 min 1,0 UV-I 429 W/m 18,0 km/h (3 Bft)
19.05.2013 17:48 19,3 C 18,4 C 67 % 1006,2 hPa 0,0 l/m 2 min 0 min 1,0 UV-I 420 W/m 23,2 km/h (4 Bft)
19.05.2013 17:50 19,2 C 18,4 C 68 % 1006,2 hPa 0,0 l/m 2 min 0 min 0,9 UV-I 410 W/m 18,0 km/h (3 Bft)
19.05.2013 17:52 19,2 C 18,4 C 68 % 1006,2 hPa 0,0 l/m 2 min 0 min 0,9 UV-I 410 W/m 18,0 km/h (3 Bft)
19.05.2013 17:54 19,2 C 18,4 C 68 % 1006,1 hPa 0,0 l/m 2 min 0 min 0,9 UV-I 403 W/m 12,9 km/h (3 Bft)
19.05.2013 17:56 19,2 C 18,4 C 68 % 1006,2 hPa 0,0 l/m 2 min 0 min 0,8 UV-I 401 W/m 20,6 km/h (4 Bft)
19.05.2013 17:58 19,2 C 17,9 C 68 % 1006,1 hPa 0,0 l/m 2 min 0 min 0,8 UV-I 394 W/m 20,6 km/h (4 Bft)
19.05.2013 18:00 19,2 C 18,4 C 69 % 1006,1 hPa 0,0 l/m 2 min 0 min 0,8 UV-I 403 W/m 12,9 km/h (3 Bft)
19.05.2013 18:02 19,1 C 18,4 C 68 % 1006,1 hPa 0,0 l/m 2 min 0 min 0,7 UV-I 388 W/m 20,6 km/h (4 Bft)
19.05.2013 18:04 19,1 C 17,9 C 68 % 1006,1 hPa 0,0 l/m 2 min 0 min 0,7 UV-I 383 W/m 15,4 km/h (3 Bft)
19.05.2013 18:06 19,1 C 18,4 C 69 % 1006,2 hPa 0,0 l/m 2 min 0 min 0,7 UV-I 374 W/m 18,0 km/h (3 Bft)
19.05.2013 18:08 19,1 C 18,4 C 69 % 1006,1 hPa 0,0 l/m 2 min 0 min 0,7 UV-I 366 W/m 15,4 km/h (3 Bft)
19.05.2013 18:10 19,2 C 18,4 C 69 % 1006,1 hPa 0,0 l/m 2 min 0 min 0,6 UV-I 367 W/m 12,9 km/h (3 Bft)
19.05.2013 18:12 19,1 C 18,4 C 69 % 1006,1 hPa 0,0 l/m 2 min 0 min 0,6 UV-I 359 W/m 15,4 km/h (3 Bft)
19.05.2013 18:14 19,0 C 17,9 C 69 % 1006,1 hPa 0,0 l/m 2 min 0 min 0,0 UV-I 341 W/m 23,2 km/h (4 Bft)
19.05.2013 18:16 18,9 C 17,9 C 70 % 1006,1 hPa 0,0 l/m 2 min 0 min 0,0 UV-I 316 W/m 15,4 km/h (3 Bft)
19.05.2013 18:18 18,8 C 17,9 C 70 % 1006,1 hPa 0,0 l/m 0 min 0 min 0,0 UV-I 158 W/m 12,9 km/h (3 Bft)
19.05.2013 18:20 18,8 C 17,9 C 69 % 1006,1 hPa 0,0 l/m 0 min 0 min 0,0 UV-I 137 W/m 18,0 km/h (3 Bft)
19.05.2013 18:22 18,8 C 17,9 C 70 % 1006,1 hPa 0,0 l/m 0 min 0 min 0,0 UV-I 165 W/m 23,2 km/h (4 Bft)
19.05.2013 18:24 18,7 C 17,9 C 69 % 1006,1 hPa 0,0 l/m 0 min 0 min 0,0 UV-I 134 W/m 20,6 km/h (4 Bft)
19.05.2013 18:26 18,7 C 17,9 C 69 % 1006,1 hPa 0,0 l/m 0 min 0 min 0,0 UV-I 125 W/m 25,7 km/h (4 Bft)
19.05.2013 18:28 18,6 C 17,3 C 69 % 1006,0 hPa 0,0 l/m 0 min 0 min 0,0 UV-I 167 W/m 20,6 km/h (4 Bft)
19.05.2013 18:30 18,6 C 17,3 C 70 % 1006,0 hPa 0,0 l/m 2 min 0 min 0,0 UV-I 287 W/m 15,4 km/h (3 Bft)
19.05.2013 18:32 18,6 C 17,3 C 70 % 1006,0 hPa 0,0 l/m 0 min 0 min 0,0 UV-I 158 W/m 15,4 km/h (3 Bft)
19.05.2013 18:34 18,5 C 17,3 C 70 % 1006,0 hPa 0,0 l/m 0 min 0 min 0,0 UV-I 116 W/m 20,6 km/h (4 Bft)
19.05.2013 18:36 18,5 C 17,3 C 70 % 1006,0 hPa 0,0 l/m 0 min 0 min 0,0 UV-I 130 W/m 25,7 km/h (4 Bft)
19.05.2013 18:38 18,5 C 17,3 C 70 % 1006,0 hPa 0,0 l/m 0 min 0 min 0,0 UV-I 113 W/m 15,4 km/h (3 Bft)
19.05.2013 18:40 18,4 C 17,3 C 70 % 1006,0 hPa 0,0 l/m 0 min 0 min 0,0 UV-I 116 W/m 20,6 km/h (4 Bft)
19.05.2013 18:42 18,5 C 17,3 C 71 % 1006,0 hPa 0,0 l/m 0 min 0 min 0,0 UV-I 120 W/m 18,0 km/h (3 Bft)
19.05.2013 18:44 18,5 C 17,3 C 71 % 1006,0 hPa 0,0 l/m 0 min 0 min 0,0 UV-I 105 W/m 23,2 km/h (4 Bft)
19.05.2013 18:46 18,4 C 17,3 C 69 % 1005,9 hPa 0,0 l/m 0 min 0 min 0,0 UV-I 176 W/m 23,2 km/h (4 Bft)
19.05.2013 18:48 18,3 C 17,3 C 70 % 1005,9 hPa 0,0 l/m 0 min 0 min 0,0 UV-I 120 W/m 30,9 km/h (5 Bft)
19.05.2013 18:50 18,3 C 17,3 C 70 % 1006,0 hPa 0,0 l/m 0 min 0 min 0,0 UV-I 105 W/m 33,5 km/h (5 Bft)
19.05.2013 18:52 18,2 C 17,3 C 70 % 1006,0 hPa 0,0 l/m 0 min 0 min 0,0 UV-I 93 W/m 23,2 km/h (4 Bft)
19.05.2013 18:54 18,2 C 17,3 C 70 % 1005,9 hPa 0,0 l/m 0 min 0 min 0,0 UV-I 90 W/m 23,2 km/h (4 Bft)
19.05.2013 18:56 18,2 C 17,3 C 70 % 1006,0 hPa 0,0 l/m 0 min 0 min 0,0 UV-I 90 W/m 20,6 km/h (4 Bft)
19.05.2013 18:58 18,2 C 17,3 C 70 % 1005,9 hPa 0,0 l/m 0 min 0 min 0,0 UV-I 90 W/m 20,6 km/h (4 Bft)
19.05.2013 19:00 18,1 C 17,3 C 70 % 1005,9 hPa 0,0 l/m 0 min 0 min 0,0 UV-I 90 W/m 23,2 km/h (4 Bft)
19.05.2013 19:02 18,1 C 16,8 C 71 % 1005,9 hPa 0,0 l/m 0 min 0 min 0,0 UV-I 88 W/m 23,2 km/h (4 Bft)
19.05.2013 19:04 18,1 C 16,8 C 72 % 1005,9 hPa 0,0 l/m 0 min 0 min 0,0 UV-I 86 W/m 20,6 km/h (4 Bft)
19.05.2013 19:06 18,1 C 16,8 C 71 % 1006,0 hPa 0,0 l/m 0 min 0 min 0,0 UV-I 84 W/m 25,7 km/h (4 Bft)
19.05.2013 19:08 18,0 C 16,8 C 71 % 1006,0 hPa 0,0 l/m 0 min 0 min 0,0 UV-I 90 W/m 30,9 km/h (5 Bft)
19.05.2013 19:10 17,9 C 16,8 C 71 % 1006,0 hPa 0,0 l/m 0 min 0 min 0,0 UV-I 84 W/m 33,5 km/h (5 Bft)
19.05.2013 19:12 17,8 C 16,8 C 72 % 1005,9 hPa 0,0 l/m 0 min 0 min 0,0 UV-I 97 W/m 23,2 km/h (4 Bft)
19.05.2013 19:14 17,8 C 16,8 C 72 % 1005,9 hPa 0,0 l/m 0 min 0 min 0,0 UV-I 83 W/m 20,6 km/h (4 Bft)
19.05.2013 19:16 17,7 C 16,8 C 72 % 1006,0 hPa 0,0 l/m 0 min 0 min 0,0 UV-I 77 W/m 18,0 km/h (3 Bft)
19.05.2013 19:18 17,7 C 16,8 C 73 % 1006,1 hPa 0,0 l/m 0 min 0 min 0,0 UV-I 76 W/m 23,2 km/h (4 Bft)
19.05.2013 19:20 17,7 C 16,8 C 73 % 1006,0 hPa 0,0 l/m 0 min 0 min 0,0 UV-I 76 W/m 28,3 km/h (4 Bft)
19.05.2013 19:22 17,6 C 16,2 C 73 % 1006,1 hPa 0,0 l/m 0 min 0 min 0,0 UV-I 76 W/m 18,0 km/h (3 Bft)
19.05.2013 19:24 17,5 C 16,2 C 73 % 1006,2 hPa 0,0 l/m 0 min 0 min 0,0 UV-I 76 W/m 23,2 km/h (4 Bft)
19.05.2013 19:26 17,4 C 16,2 C 73 % 1006,2 hPa 0,0 l/m 0 min 0 min 0,0 UV-I 76 W/m 15,4 km/h (3 Bft)
19.05.2013 19:28 17,4 C 16,2 C 74 % 1006,3 hPa 0,0 l/m 0 min 0 min 0,0 UV-I 76 W/m 15,4 km/h (3 Bft)
19.05.2013 19:30 17,3 C 16,2 C 74 % 1006,2 hPa 0,0 l/m 0 min 0 min 0,0 UV-I 74 W/m 18,0 km/h (3 Bft)
19.05.2013 19:32 17,3 C 16,2 C 75 % 1006,2 hPa 0,0 l/m 0 min 0 min 0,0 UV-I 72 W/m 20,6 km/h (4 Bft)
19.05.2013 19:34 17,2 C 16,2 C 74 % 1006,2 hPa 0,0 l/m 0 min 0 min 0,0 UV-I 70 W/m 28,3 km/h (4 Bft)
19.05.2013 19:36 17,2 C 16,2 C 75 % 1006,2 hPa 0,0 l/m 0 min 0 min 0,0 UV-I 69 W/m 18,0 km/h (3 Bft)
19.05.2013 19:38 17,1 C 16,2 C 75 % 1006,2 hPa 0,0 l/m 0 min 0 min 0,0 UV-I 69 W/m 20,6 km/h (4 Bft)
19.05.2013 19:40 17,1 C 16,2 C 75 % 1006,3 hPa 0,0 l/m 0 min 0 min 0,0 UV-I 67 W/m 18,0 km/h (3 Bft)
19.05.2013 19:42 16,9 C 15,7 C 75 % 1006,2 hPa 0,0 l/m 0 min 0 min 0,0 UV-I 65 W/m 30,9 km/h (5 Bft)
19.05.2013 19:44 16,9 C 15,7 C 75 % 1006,2 hPa 0,0 l/m 0 min 0 min 0,0 UV-I 65 W/m 33,5 km/h (5 Bft)
19.05.2013 19:46 16,8 C 15,7 C 76 % 1006,2 hPa 0,0 l/m 0 min 0 min 0,0 UV-I 63 W/m 23,2 km/h (4 Bft)
19.05.2013 19:48 16,7 C 15,7 C 76 % 1006,2 hPa 0,0 l/m 0 min 0 min 0,0 UV-I 63 W/m 20,6 km/h (4 Bft)
19.05.2013 19:50 16,6 C 15,7 C 76 % 1006,2 hPa 0,0 l/m 0 min 0 min 0,0 UV-I 62 W/m 18,0 km/h (3 Bft)
19.05.2013 19:52 16,6 C 15,7 C 76 % 1006,3 hPa 0,0 l/m 0 min 0 min 0,0 UV-I 60 W/m 15,4 km/h (3 Bft)
19.05.2013 19:54 16,5 C 15,7 C 76 % 1006,2 hPa 0,0 l/m 0 min 0 min 0,0 UV-I 60 W/m 20,6 km/h (4 Bft)
19.05.2013 19:56 16,4 C 15,7 C 76 % 1006,3 hPa 0,0 l/m 0 min 0 min 0,0 UV-I 58 W/m 20,6 km/h (4 Bft)
19.05.2013 19:58 16,4 C 15,1 C 77 % 1006,3 hPa 0,0 l/m 0 min 0 min 0,0 UV-I 56 W/m 20,6 km/h (4 Bft)
19.05.2013 20:00 16,3 C 15,1 C 77 % 1006,3 hPa 0,0 l/m 0 min 0 min 0,0 UV-I 56 W/m 15,4 km/h (3 Bft)
19.05.2013 20:02 16,3 C 15,1 C 77 % 1006,4 hPa 0,0 l/m 0 min 0 min 0,0 UV-I 56 W/m 20,6 km/h (4 Bft)
19.05.2013 20:04 16,2 C 15,1 C 77 % 1006,3 hPa 0,0 l/m 0 min 0 min 0,0 UV-I 54 W/m 15,4 km/h (3 Bft)
19.05.2013 20:06 16,1 C 15,1 C 77 % 1006,4 hPa 0,0 l/m 0 min 0 min 0,0 UV-I 53 W/m 23,2 km/h (4 Bft)
19.05.2013 20:08 16,1 C 15,1 C 78 % 1006,4 hPa 0,0 l/m 0 min 0 min 0,0 UV-I 53 W/m 15,4 km/h (3 Bft)
19.05.2013 20:10 16,0 C 14,6 C 78 % 1006,4 hPa 0,0 l/m 0 min 0 min 0,0 UV-I 53 W/m 25,7 km/h (4 Bft)
19.05.2013 20:12 15,9 C 14,6 C 78 % 1006,4 hPa 0,0 l/m 0 min 0 min 0,0 UV-I 51 W/m 23,2 km/h (4 Bft)
19.05.2013 20:14 15,9 C 14,6 C 78 % 1006,5 hPa 0,0 l/m 0 min 0 min 0,0 UV-I 51 W/m 20,6 km/h (4 Bft)
19.05.2013 20:16 15,8 C 14,6 C 78 % 1006,5 hPa 0,0 l/m 0 min 0 min 0,0 UV-I 49 W/m 12,9 km/h (3 Bft)
19.05.2013 20:18 15,8 C 14,6 C 78 % 1006,5 hPa 0,0 l/m 0 min 0 min 0,0 UV-I 47 W/m 25,7 km/h (4 Bft)
19.05.2013 20:20 15,7 C 14,6 C 78 % 1006,6 hPa 0,0 l/m 0 min 0 min 0,0 UV-I 47 W/m 18,0 km/h (3 Bft)
19.05.2013 20:22 15,7 C 14,6 C 78 % 1006,5 hPa 0,0 l/m 0 min 0 min 0,0 UV-I 46 W/m 28,3 km/h (4 Bft)
19.05.2013 20:24 15,6 C 14,6 C 79 % 1006,6 hPa 0,0 l/m 0 min 0 min 0,0 UV-I 44 W/m 18,0 km/h (3 Bft)
19.05.2013 20:26 15,6 C 14,6 C 79 % 1006,6 hPa 0,0 l/m 0 min 0 min 0,0 UV-I 42 W/m 12,9 km/h (3 Bft)
19.05.2013 20:28 15,5 C 14,6 C 79 % 1006,6 hPa 0,0 l/m 0 min 0 min 0,0 UV-I 40 W/m 28,3 km/h (4 Bft)
19.05.2013 20:30 15,4 C 14,0 C 79 % 1006,7 hPa 0,0 l/m 0 min 0 min 0,0 UV-I 39 W/m 20,6 km/h (4 Bft)
19.05.2013 20:32 15,3 C 14,0 C 79 % 1006,7 hPa 0,0 l/m 0 min 0 min 0,0 UV-I 37 W/m 15,4 km/h (3 Bft)
19.05.2013 20:34 15,3 C 14,0 C 79 % 1006,7 hPa 0,0 l/m 0 min 0 min 0,0 UV-I 37 W/m 15,4 km/h (3 Bft)
19.05.2013 20:36 15,2 C 14,0 C 79 % 1006,7 hPa 0,0 l/m 0 min 0 min 0,0 UV-I 35 W/m 18,0 km/h (3 Bft)
19.05.2013 20:38 15,1 C 14,0 C 80 % 1006,7 hPa 0,0 l/m 0 min 0 min 0,0 UV-I 33 W/m 15,4 km/h (3 Bft)
19.05.2013 20:40 15,1 C 14,0 C 80 % 1006,7 hPa 0,0 l/m 0 min 0 min 0,0 UV-I 32 W/m 12,9 km/h (3 Bft)
19.05.2013 20:42 15,0 C 13,4 C 80 % 1006,7 hPa 0,0 l/m 0 min 0 min 0,0 UV-I 32 W/m 15,4 km/h (3 Bft)
19.05.2013 20:44 14,9 C 13,4 C 80 % 1006,8 hPa 0,0 l/m 0 min 0 min 0,0 UV-I 30 W/m 20,6 km/h (4 Bft)
19.05.2013 20:46 14,8 C 13,4 C 81 % 1006,8 hPa 0,0 l/m 0 min 0 min 0,0 UV-I 28 W/m 7,7 km/h (2 Bft)
19.05.2013 20:48 14,8 C 13,4 C 81 % 1006,8 hPa 0,0 l/m 0 min 0 min 0,0 UV-I 28 W/m 12,9 km/h (3 Bft)
19.05.2013 20:50 14,8 C 13,4 C 81 % 1006,8 hPa 0,0 l/m 0 min 0 min 0,0 UV-I 26 W/m 15,4 km/h (3 Bft)
19.05.2013 20:52 14,8 C 13,4 C 80 % 1006,8 hPa 0,0 l/m 0 min 0 min 0,0 UV-I 26 W/m 18,0 km/h (3 Bft)
19.05.2013 20:54 14,7 C 13,4 C 80 % 1006,9 hPa 0,0 l/m 0 min 0 min 0,0 UV-I 25 W/m 12,9 km/h (3 Bft)
19.05.2013 20:56 14,7 C 13,4 C 80 % 1006,8 hPa 0,0 l/m 0 min 0 min 0,0 UV-I 23 W/m 18,0 km/h (3 Bft)
19.05.2013 20:58 14,7 C 13,4 C 80 % 1006,8 hPa 0,0 l/m 0 min 0 min 0,0 UV-I 21 W/m 18,0 km/h (3 Bft)
19.05.2013 21:00 14,7 C 12,9 C 80 % 1006,8 hPa 0,0 l/m 0 min 0 min 0,0 UV-I 19 W/m 20,6 km/h (4 Bft)
19.05.2013 21:02 14,6 C 12,9 C 80 % 1006,9 hPa 0,0 l/m 0 min 0 min 0,0 UV-I 18 W/m 7,7 km/h (2 Bft)
19.05.2013 21:04 14,6 C 12,9 C 80 % 1006,9 hPa 0,0 l/m 0 min 0 min 0,0 UV-I 18 W/m 7,7 km/h (2 Bft)
19.05.2013 21:06 14,5 C 12,9 C 80 % 1007,0 hPa 0,0 l/m 0 min 0 min 0,0 UV-I 16 W/m 15,4 km/h (3 Bft)
19.05.2013 21:08 14,4 C 12,9 C 80 % 1006,9 hPa 0,0 l/m 0 min 0 min 0,0 UV-I 14 W/m 7,7 km/h (2 Bft)
19.05.2013 21:10 14,4 C 12,9 C 80 % 1006,9 hPa 0,0 l/m 0 min 0 min 0,0 UV-I 12 W/m 10,3 km/h (2 Bft)
19.05.2013 21:12 14,4 C 12,9 C 80 % 1006,9 hPa 0,0 l/m 0 min 0 min 0,0 UV-I 12 W/m 7,7 km/h (2 Bft)
19.05.2013 21:14 14,3 C 12,9 C 81 % 1007,0 hPa 0,0 l/m 0 min 0 min 0,0 UV-I 9 W/m 18,0 km/h (3 Bft)
19.05.2013 21:16 14,3 C 12,3 C 80 % 1007,1 hPa 0,0 l/m 0 min 0 min 0,0 UV-I 9 W/m 12,9 km/h (3 Bft)
19.05.2013 21:18 14,2 C 12,3 C 81 % 1007,1 hPa 0,0 l/m 0 min 0 min 0,0 UV-I 7 W/m 10,3 km/h (2 Bft)
19.05.2013 21:20 14,2 C 12,3 C 81 % 1007,1 hPa 0,0 l/m 0 min 0 min 0,0 UV-I 7 W/m 15,4 km/h (3 Bft)
19.05.2013 21:22 14,1 C 12,3 C 81 % 1007,1 hPa 0,0 l/m 0 min 0 min 0,0 UV-I 7 W/m 0,0 km/h (0 Bft)
19.05.2013 21:24 14,0 C 12,3 C 81 % 1007,1 hPa 0,0 l/m 0 min 0 min 0,0 UV-I 5 W/m 7,7 km/h (2 Bft)
19.05.2013 21:26 14,0 C 12,3 C 81 % 1007,1 hPa 0,0 l/m 0 min 0 min 0,0 UV-I 5 W/m 12,9 km/h (3 Bft)
19.05.2013 21:28 14,0 C 12,3 C 81 % 1007,2 hPa 0,0 l/m 0 min 0 min 0,0 UV-I 0 W/m 12,9 km/h (3 Bft)
19.05.2013 21:30 14,0 C 12,3 C 81 % 1007,2 hPa 0,0 l/m 0 min 0 min 0,0 UV-I 0 W/m 15,4 km/h (3 Bft)
19.05.2013 21:32 13,9 C 12,3 C 81 % 1007,3 hPa 0,0 l/m 0 min 0 min 0,0 UV-I 0 W/m 15,4 km/h (3 Bft)
19.05.2013 21:34 13,8 C 12,3 C 81 % 1007,2 hPa 0,0 l/m 0 min 0 min 0,0 UV-I 0 W/m 15,4 km/h (3 Bft)
19.05.2013 21:36 13,8 C 11,8 C 81 % 1007,3 hPa 0,0 l/m 0 min 0 min 0,0 UV-I 0 W/m 10,3 km/h (2 Bft)
19.05.2013 21:38 13,7 C 11,8 C 82 % 1007,4 hPa 0,0 l/m 0 min 0 min 0,0 UV-I 0 W/m 10,3 km/h (2 Bft)
19.05.2013 21:40 13,7 C 11,8 C 82 % 1007,4 hPa 0,0 l/m 0 min 0 min 0,0 UV-I 0 W/m 12,9 km/h (3 Bft)
19.05.2013 21:42 13,6 C 11,8 C 82 % 1007,4 hPa 0,0 l/m 0 min 0 min 0,0 UV-I 0 W/m 12,9 km/h (3 Bft)
19.05.2013 21:44 13,6 C 11,8 C 82 % 1007,5 hPa 0,0 l/m 0 min 0 min 0,0 UV-I 0 W/m 0,0 km/h (0 Bft)
19.05.2013 21:46 13,6 C 11,8 C 82 % 1007,5 hPa 0,0 l/m 0 min 0 min 0,0 UV-I 0 W/m 10,3 km/h (2 Bft)
19.05.2013 21:48 13,5 C 11,8 C 82 % 1007,5 hPa 0,0 l/m 0 min 0 min 0,0 UV-I 0 W/m 12,9 km/h (3 Bft)
19.05.2013 21:50 13,4 C 11,8 C 82 % 1007,5 hPa 0,0 l/m 0 min 0 min 0,0 UV-I 0 W/m 7,7 km/h (2 Bft)
19.05.2013 21:52 13,4 C 11,8 C 83 % 1007,5 hPa 0,0 l/m 0 min 0 min 0,0 UV-I 0 W/m 10,3 km/h (2 Bft)
19.05.2013 21:54 13,3 C 11,8 C 83 % 1007,6 hPa 0,0 l/m 0 min 0 min 0,0 UV-I 0 W/m 12,9 km/h (3 Bft)
19.05.2013 21:56 13,3 C 11,2 C 83 % 1007,6 hPa 0,0 l/m 0 min 0 min 0,0 UV-I 0 W/m 10,3 km/h (2 Bft)
19.05.2013 21:58 13,3 C 11,2 C 83 % 1007,6 hPa 0,0 l/m 0 min 0 min 0,0 UV-I 0 W/m 10,3 km/h (2 Bft)
19.05.2013 22:00 13,2 C 11,2 C 83 % 1007,6 hPa 0,0 l/m 0 min 0 min 0,0 UV-I 0 W/m 10,3 km/h (2 Bft)
19.05.2013 22:02 13,2 C 11,2 C 83 % 1007,6 hPa 0,0 l/m 0 min 0 min 0,0 UV-I 0 W/m 2,6 km/h (1 Bft)
19.05.2013 22:04 13,1 C 11,2 C 83 % 1007,6 hPa 0,0 l/m 0 min 0 min 0,0 UV-I 0 W/m 0,0 km/h (0 Bft)
19.05.2013 22:06 13,1 C 11,2 C 83 % 1007,5 hPa 0,0 l/m 0 min 0 min 0,0 UV-I 0 W/m 7,7 km/h (2 Bft)
19.05.2013 22:08 13,1 C 11,2 C 83 % 1007,6 hPa 0,0 l/m 0 min 0 min 0,0 UV-I 0 W/m 12,9 km/h (3 Bft)
19.05.2013 22:10 13,0 C 11,2 C 84 % 1007,5 hPa 0,0 l/m 0 min 0 min 0,0 UV-I 0 W/m 0,0 km/h (0 Bft)
19.05.2013 22:12 13,0 C 11,2 C 84 % 1007,5 hPa 0,0 l/m 0 min 0 min 0,0 UV-I 0 W/m 7,7 km/h (2 Bft)
19.05.2013 22:14 12,9 C 11,2 C 84 % 1007,5 hPa 0,0 l/m 0 min 0 min 0,0 UV-I 0 W/m 0,0 km/h (0 Bft)
19.05.2013 22:16 12,9 C 11,2 C 84 % 1007,5 hPa 0,0 l/m 0 min 0 min 0,0 UV-I 0 W/m 12,9 km/h (3 Bft)
19.05.2013 22:18 12,8 C 11,2 C 84 % 1007,5 hPa 0,0 l/m 0 min 0 min 0,0 UV-I 0 W/m 7,7 km/h (2 Bft)
19.05.2013 22:20 12,8 C 11,2 C 84 % 1007,4 hPa 0,0 l/m 0 min 0 min 0,0 UV-I 0 W/m 7,7 km/h (2 Bft)
19.05.2013 22:22 12,8 C 11,2 C 84 % 1007,5 hPa 0,0 l/m 0 min 0 min 0,0 UV-I 0 W/m 7,7 km/h (2 Bft)
19.05.2013 22:24 12,7 C 11,2 C 84 % 1007,5 hPa 0,0 l/m 0 min 0 min 0,0 UV-I 0 W/m 7,7 km/h (2 Bft)
19.05.2013 22:26 12,7 C 11,2 C 84 % 1007,6 hPa 0,0 l/m 0 min 0 min 0,0 UV-I 0 W/m 7,7 km/h (2 Bft)
19.05.2013 22:28 12,6 C 11,2 C 84 % 1007,5 hPa 0,0 l/m 0 min 0 min 0,0 UV-I 0 W/m 7,7 km/h (2 Bft)
19.05.2013 22:30 12,6 C 10,7 C 84 % 1007,6 hPa 0,0 l/m 0 min 0 min 0,0 UV-I 0 W/m 7,7 km/h (2 Bft)
19.05.2013 22:32 12,6 C 10,7 C 84 % 1007,6 hPa 0,0 l/m 0 min 0 min 0,0 UV-I 0 W/m 0,0 km/h (0 Bft)
19.05.2013 22:34 12,5 C 10,7 C 84 % 1007,6 hPa 0,0 l/m 0 min 0 min 0,0 UV-I 0 W/m 7,7 km/h (2 Bft)
19.05.2013 22:36 12,5 C 10,7 C 84 % 1007,5 hPa 0,0 l/m 0 min 0 min 0,0 UV-I 0 W/m 5,1 km/h (1 Bft)
19.05.2013 22:38 12,4 C 10,7 C 85 % 1007,5 hPa 0,0 l/m 0 min 0 min 0,0 UV-I 0 W/m 5,1 km/h (1 Bft)
19.05.2013 22:40 12,4 C 10,7 C 85 % 1007,5 hPa 0,0 l/m 0 min 0 min 0,0 UV-I 0 W/m 5,1 km/h (1 Bft)
19.05.2013 22:42 12,4 C 10,7 C 85 % 1007,6 hPa 0,0 l/m 0 min 0 min 0,0 UV-I 0 W/m 2,6 km/h (1 Bft)
19.05.2013 22:44 12,3 C 10,7 C 85 % 1007,5 hPa 0,0 l/m 0 min 0 min 0,0 UV-I 0 W/m 2,6 km/h (1 Bft)
19.05.2013 22:46 12,3 C 10,7 C 85 % 1007,5 hPa 0,0 l/m 0 min 0 min 0,0 UV-I 0 W/m 10,3 km/h (2 Bft)
19.05.2013 22:48 12,3 C 10,7 C 85 % 1007,5 hPa 0,0 l/m 0 min 0 min 0,0 UV-I 0 W/m 10,3 km/h (2 Bft)
19.05.2013 22:50 12,3 C 10,7 C 85 % 1007,5 hPa 0,0 l/m 0 min 0 min 0,0 UV-I 0 W/m 10,3 km/h (2 Bft)
19.05.2013 22:52 12,2 C 10,7 C 85 % 1007,5 hPa 0,0 l/m 0 min 0 min 0,0 UV-I 0 W/m 7,7 km/h (2 Bft)
19.05.2013 22:54 12,2 C 10,7 C 85 % 1007,4 hPa 0,0 l/m 0 min 0 min 0,0 UV-I 0 W/m 12,9 km/h (3 Bft)
19.05.2013 22:56 12,2 C 10,7 C 85 % 1007,5 hPa 0,0 l/m 0 min 0 min 0,0 UV-I 0 W/m 7,7 km/h (2 Bft)
19.05.2013 22:58 12,1 C 10,7 C 85 % 1007,5 hPa 0,0 l/m 0 min 0 min 0,0 UV-I 0 W/m 10,3 km/h (2 Bft)
19.05.2013 23:00 12,1 C 10,7 C 85 % 1007,5 hPa 0,0 l/m 0 min 0 min 0,0 UV-I 0 W/m 7,7 km/h (2 Bft)
19.05.2013 23:02 12,1 C 10,7 C 85 % 1007,5 hPa 0,0 l/m 0 min 0 min 0,0 UV-I 0 W/m 7,7 km/h (2 Bft)
19.05.2013 23:04 12,1 C 10,7 C 85 % 1007,5 hPa 0,0 l/m 0 min 0 min 0,0 UV-I 0 W/m 7,7 km/h (2 Bft)
19.05.2013 23:06 12,1 C 10,7 C 85 % 1007,6 hPa 0,0 l/m 0 min 0 min 0,0 UV-I 0 W/m 7,7 km/h (2 Bft)
19.05.2013 23:08 12,1 C 10,7 C 85 % 1007,6 hPa 0,0 l/m 0 min 0 min 0,0 UV-I 0 W/m 7,7 km/h (2 Bft)
19.05.2013 23:10 12,0 C 10,7 C 85 % 1007,6 hPa 0,0 l/m 0 min 0 min 0,0 UV-I 0 W/m 5,1 km/h (1 Bft)
19.05.2013 23:12 12,0 C 10,7 C 85 % 1007,6 hPa 0,0 l/m 0 min 0 min 0,0 UV-I 0 W/m 5,1 km/h (1 Bft)
19.05.2013 23:14 12,0 C 10,7 C 85 % 1007,7 hPa 0,0 l/m 0 min 0 min 0,0 UV-I 0 W/m 5,1 km/h (1 Bft)
19.05.2013 23:16 11,9 C 10,7 C 85 % 1007,6 hPa 0,0 l/m 0 min 0 min 0,0 UV-I 0 W/m 7,7 km/h (2 Bft)
19.05.2013 23:18 11,9 C 10,7 C 85 % 1007,6 hPa 0,0 l/m 0 min 0 min 0,0 UV-I 0 W/m 7,7 km/h (2 Bft)
19.05.2013 23:20 11,9 C 10,7 C 85 % 1007,6 hPa 0,0 l/m 0 min 0 min 0,0 UV-I 0 W/m 7,7 km/h (2 Bft)
19.05.2013 23:22 11,9 C 10,7 C 85 % 1007,6 hPa 0,0 l/m 0 min 0 min 0,0 UV-I 0 W/m 10,3 km/h (2 Bft)
19.05.2013 23:24 11,9 C 10,7 C 85 % 1007,6 hPa 0,0 l/m 0 min 0 min 0,0 UV-I 0 W/m 10,3 km/h (2 Bft)
19.05.2013 23:26 11,8 C 10,7 C 85 % 1007,6 hPa 0,0 l/m 0 min 0 min 0,0 UV-I 0 W/m 7,7 km/h (2 Bft)
19.05.2013 23:28 11,8 C 10,7 C 85 % 1007,6 hPa 0,0 l/m 0 min 0 min 0,0 UV-I 0 W/m 10,3 km/h (2 Bft)
19.05.2013 23:30 11,8 C 10,7 C 86 % 1007,5 hPa 0,0 l/m 0 min 0 min 0,0 UV-I 0 W/m 2,6 km/h (1 Bft)
19.05.2013 23:32 11,8 C 10,7 C 86 % 1007,5 hPa 0,0 l/m 0 min 0 min 0,0 UV-I 0 W/m 2,6 km/h (1 Bft)
19.05.2013 23:34 11,8 C 10,7 C 86 % 1007,5 hPa 0,0 l/m 0 min 0 min 0,0 UV-I 0 W/m 0,0 km/h (0 Bft)
19.05.2013 23:36 11,8 C 10,7 C 86 % 1007,5 hPa 0,0 l/m 0 min 0 min 0,0 UV-I 0 W/m 0,0 km/h (0 Bft)
19.05.2013 23:38 11,8 C 10,1 C 86 % 1007,5 hPa 0,0 l/m 0 min 0 min 0,0 UV-I 0 W/m 2,6 km/h (1 Bft)
19.05.2013 23:40 11,8 C 10,1 C 86 % 1007,6 hPa 0,0 l/m 0 min 0 min 0,0 UV-I 0 W/m 0,0 km/h (0 Bft)
19.05.2013 23:42 11,7 C 10,1 C 86 % 1007,5 hPa 0,0 l/m 0 min 0 min 0,0 UV-I 0 W/m 0,0 km/h (0 Bft)
19.05.2013 23:44 11,7 C 10,1 C 86 % 1007,5 hPa 0,0 l/m 0 min 0 min 0,0 UV-I 0 W/m 0,0 km/h (0 Bft)
19.05.2013 23:46 11,7 C 10,1 C 86 % 1007,5 hPa 0,0 l/m 0 min 0 min 0,0 UV-I 0 W/m 0,0 km/h (0 Bft)
19.05.2013 23:48 11,7 C 10,1 C 86 % 1007,5 hPa 0,0 l/m 0 min 0 min 0,0 UV-I 0 W/m 0,0 km/h (0 Bft)
19.05.2013 23:50 11,7 C 10,1 C 86 % 1007,5 hPa 0,0 l/m 0 min 0 min 0,0 UV-I 0 W/m 0,0 km/h (0 Bft)
19.05.2013 23:52 11,6 C 10,1 C 86 % 1007,5 hPa 0,0 l/m 0 min 0 min 0,0 UV-I 0 W/m 0,0 km/h (0 Bft)
19.05.2013 23:54 11,6 C 10,1 C 86 % 1007,5 hPa 0,0 l/m 0 min 0 min 0,0 UV-I 0 W/m 2,6 km/h (1 Bft)
19.05.2013 23:56 11,6 C 9,6 C 86 % 1007,4 hPa 0,0 l/m 0 min 0 min 0,0 UV-I 0 W/m 0,0 km/h (0 Bft)
19.05.2013 23:58 11,6 C 9,6 C 86 % 1007,4 hPa 0,0 l/m 0 min 0 min 0,0 UV-I 0 W/m 0,0 km/h (0 Bft)
_ Min-Zeit 06:44 05:56 15:58 18:46 - - - - - 00:00
Minimum _ 6,1 C 4,6 C 64 % 1005,9 hPa - - - - - 0,0 km/h (0 Bft)
_ Max-Zeit 15:56 12:24 02:12 08:34 00:00 08:00 00:00 12:34 13:26 15:34
Maximum _ 20,2 C 25,7 C 98 % 1009,2 hPa 0,0 l/m 2 min 0 min 4,6 UV-I 856 W/m 33,5 km/h
N (5 Bft)
Durchschnitt _ 13,0 C 13,2 C 83 % 1007,7 hPa #0,0 l/m #9:22 h #0 min. 2,8 UV-I 421 W/m 10,2 km/h (2 Bft)
© 2013 W. Hausmann